Time,TemperatureF,DewpointF,PressureIn,WindDirection,WindDirectionDegrees,WindSpeedMPH,WindSpeedGustMPH,Humidity,HourlyPrecipIn,Conditions,Clouds,dailyrainin,SoftwareType,DateUTC
2013-08-08 00:00:00,69.8,63.3,30.17,ESE,112,0.0,0.7,80,0.00,CLR,,0.00,WeatherDisplay:10.37,2013-08-08 04:00:00,
2013-08-08 00:01:00,69.6,63.2,30.17,South,180,1.2,3.3,80,0.00,CLR,,0.00,WeatherDisplay:10.37,2013-08-08 04:01:00,
2013-08-08 00:06:00,69.6,63.2,30.17,SW,225,2.3,2.3,80,0.00,CLR,,0.00,WeatherDisplay:10.37,2013-08-08 04:06:00,
2013-08-08 00:11:00,69.6,63.2,30.17,SE,135,1.2,1.4,80,0.00,CLR,,0.00,WeatherDisplay:10.37,2013-08-08 04:11:00,
2013-08-08 00:12:00,69.6,63.2,30.17,SW,225,1.2,1.2,80,0.00,CLR,,0.00,WeatherDisplay:10.37,2013-08-08 04:12:00,
2013-08-08 00:16:00,69.6,63.2,30.17,ESE,112,1.2,1.2,80,0.00,CLR,,0.00,WeatherDisplay:10.37,2013-08-08 04:16:00,
2013-08-08 00:17:00,69.6,63.2,30.17,ESE,112,1.2,1.2,80,0.00,CLR,,0.00,WeatherDisplay:10.37,2013-08-08 04:17:00,
2013-08-08 00:18:00,69.6,63.2,30.17,SE,135,0.0,0.5,80,0.00,CLR,,0.00,WeatherDisplay:10.37,2013-08-08 04:18:00,
2013-08-08 00:22:00,69.6,63.2,30.17,SSE,158,1.2,1.6,80,0.00,CLR,,0.00,WeatherDisplay:10.37,2013-08-08 04:22:00,
2013-08-08 00:23:00,69.6,63.2,30.17,SSE,158,1.2,1.2,80,0.00,CLR,,0.00,WeatherDisplay:10.37,2013-08-08 04:23:00,
2013-08-08 00:27:00,69.8,63.7,30.17,SSW,202,2.3,3.3,81,0.00,CLR,,0.00,WeatherDisplay:10.37,2013-08-08 04:27:00,
2013-08-08 00:28:00,69.6,63.5,30.17,SSE,158,3.5,0.0,81,0.00,CLR,,0.00,WeatherDisplay:10.37,2013-08-08 04:28:00,
2013-08-08 00:32:00,69.8,63.7,30.16,SE,135,1.2,1.2,81,0.00,CLR,,0.00,WeatherDisplay:10.37,2013-08-08 04:32:00,
2013-08-08 00:33:00,69.8,63.3,30.16,SSE,158,1.2,1.6,80,0.00,CLR,,0.00,WeatherDisplay:10.37,2013-08-08 04:33:00,
2013-08-08 00:34:00,69.8,63.3,30.17,SSE,158,1.2,1.2,80,0.00,CLR,,0.00,WeatherDisplay:10.37,2013-08-08 04:34:00,
2013-08-08 00:37:00,69.8,63.7,30.16,SSE,158,1.2,1.2,81,0.00,CLR,,0.00,WeatherDisplay:10.37,2013-08-08 04:37:00,
2013-08-08 00:38:00,69.8,63.7,30.16,SSE,158,1.2,1.2,81,0.00,CLR,,0.00,WeatherDisplay:10.37,2013-08-08 04:38:00,
2013-08-08 00:39:00,69.8,63.3,30.16,SSE,158,1.2,0.0,80,0.00,CLR,,0.00,WeatherDisplay:10.37,2013-08-08 04:39:00,
2013-08-08 00:42:00,69.8,63.7,30.16,SSE,158,0.0,0.0,81,0.00,CLR,,0.00,WeatherDisplay:10.37,2013-08-08 04:42:00,
2013-08-08 00:43:00,69.8,63.7,30.16,South,180,0.0,0.5,81,0.00,CLR,,0.00,WeatherDisplay:10.37,2013-08-08 04:43:00,
2013-08-08 00:45:00,69.8,63.7,30.17,SE,135,2.3,0.0,81,0.00,CLR,,0.00,WeatherDisplay:10.37,2013-08-08 04:45:00,
2013-08-08 00:47:00,69.8,63.7,30.16,SSE,158,1.2,1.2,81,0.00,CLR,,0.00,WeatherDisplay:10.37,2013-08-08 04:47:00,
2013-08-08 00:48:00,69.8,63.7,30.16,SSE,158,1.2,1.2,81,0.00,CLR,,0.00,WeatherDisplay:10.37,2013-08-08 04:48:00,
2013-08-08 00:50:00,69.8,63.7,30.16,SSE,158,1.2,0.0,81,0.00,CLR,,0.00,WeatherDisplay:10.37,2013-08-08 04:50:00,
2013-08-08 00:52:00,69.8,63.7,30.16,South,180,2.3,2.3,81,0.00,CLR,,0.00,WeatherDisplay:10.37,2013-08-08 04:52:00,
2013-08-08 00:53:00,69.8,63.7,30.16,South,180,2.3,2.3,81,0.00,CLR,,0.00,WeatherDisplay:10.37,2013-08-08 04:53:00,
2013-08-08 00:54:00,69.8,63.7,30.16,South,180,2.3,2.3,81,0.00,CLR,,0.00,WeatherDisplay:10.37,2013-08-08 04:54:00,
2013-08-08 00:56:00,69.8,63.7,30.16,SSE,158,2.3,2.3,81,0.00,CLR,,0.00,WeatherDisplay:10.37,2013-08-08 04:56:00,
2013-08-08 00:57:00,69.8,63.7,30.16,East,90,2.3,2.3,81,0.00,CLR,,0.00,WeatherDisplay:10.37,2013-08-08 04:57:00,
2013-08-08 00:59:00,69.8,63.7,30.16,East,90,2.3,2.3,81,0.00,CLR,,0.00,WeatherDisplay:10.37,2013-08-08 04:59:00,
2013-08-08 01:01:00,69.8,63.7,30.16,NW,315,1.2,1.2,81,0.00,CLR,,0.00,WeatherDisplay:10.37,2013-08-08 05:01:00,
2013-08-08 01:02:00,69.8,63.7,30.16,NW,315,1.2,1.2,81,0.00,CLR,,0.00,WeatherDisplay:10.37,2013-08-08 05:02:00,
2013-08-08 01:04:00,70.0,63.9,30.16,SE,135,3.5,3.6,81,0.00,CLR,,0.00,WeatherDisplay:10.37,2013-08-08 05:04:00,
2013-08-08 01:06:00,69.8,63.7,30.16,SSE,158,3.5,3.5,81,0.00,CLR,,0.00,WeatherDisplay:10.37,2013-08-08 05:06:00,
2013-08-08 01:08:00,69.8,63.7,30.16,SE,135,3.5,0.0,81,0.00,CLR,,0.00,WeatherDisplay:10.37,2013-08-08 05:08:00,
2013-08-08 01:09:00,69.8,63.7,30.16,South,180,2.3,2.3,81,0.00,CLR,,0.00,WeatherDisplay:10.37,2013-08-08 05:09:00,
2013-08-08 01:11:00,69.8,63.7,30.16,SSE,158,1.2,1.2,81,0.00,CLR,,0.00,WeatherDisplay:10.37,2013-08-08 05:11:00,
2013-08-08 01:13:00,70.0,63.9,30.17,SSE,158,1.2,1.2,81,0.00,CLR,,0.00,WeatherDisplay:10.37,2013-08-08 05:13:00,
2013-08-08 01:14:00,70.0,63.9,30.16,SE,135,1.2,1.2,81,0.00,CLR,,0.00,WeatherDisplay:10.37,2013-08-08 05:14:00,
2013-08-08 01:16:00,70.0,63.9,30.17,SSE,158,1.2,1.2,81,0.00,CLR,,0.00,WeatherDisplay:10.37,2013-08-08 05:16:00,
2013-08-08 01:18:00,70.0,63.9,30.16,SE,135,0.0,0.5,81,0.00,CLR,,0.00,WeatherDisplay:10.37,2013-08-08 05:18:00,
2013-08-08 01:19:00,70.0,64.2,30.16,SSE,158,2.3,2.4,82,0.00,CLR,,0.00,WeatherDisplay:10.37,2013-08-08 05:19:00,
2013-08-08 01:20:00,70.0,64.2,30.16,SSE,158,2.3,2.4,82,0.00,CLR,,0.00,WeatherDisplay:10.37,2013-08-08 05:20:00,
2013-08-08 01:22:00,70.0,64.2,30.16,SSE,158,2.3,0.0,82,0.00,CLR,,0.00,WeatherDisplay:10.37,2013-08-08 05:22:00,
2013-08-08 01:23:00,70.0,63.9,30.16,SSE,158,2.3,2.3,81,0.00,CLR,,0.00,WeatherDisplay:10.37,2013-08-08 05:23:00,
2013-08-08 01:24:00,70.0,64.2,30.17,South,180,0.0,0.2,82,0.00,CLR,,0.00,WeatherDisplay:10.37,2013-08-08 05:24:00,
2013-08-08 01:25:00,70.0,64.2,30.17,South,180,0.0,0.2,82,0.00,CLR,,0.00,WeatherDisplay:10.37,2013-08-08 05:25:00,
2013-08-08 01:27:00,70.0,64.2,30.16,South,180,0.0,0.0,82,0.00,CLR,,0.00,WeatherDisplay:10.37,2013-08-08 05:27:00,
2013-08-08 01:28:00,70.0,64.2,30.16,South,180,0.0,0.2,82,0.00,CLR,,0.00,WeatherDisplay:10.37,2013-08-08 05:28:00,
2013-08-08 01:30:00,70.0,64.2,30.17,South,180,0.0,0.0,82,0.00,CLR,,0.00,WeatherDisplay:10.37,2013-08-08 05:30:00,
2013-08-08 01:32:00,70.0,64.2,30.17,SE,135,2.3,2.3,82,0.00,CLR,,0.00,WeatherDisplay:10.37,2013-08-08 05:32:00,
2013-08-08 01:34:00,70.0,64.2,30.16,SE,135,2.3,2.3,82,0.00,CLR,,0.00,WeatherDisplay:10.37,2013-08-08 05:34:00,
2013-08-08 01:35:00,70.0,64.2,30.16,SSE,158,1.2,1.2,82,0.00,CLR,,0.00,WeatherDisplay:10.37,2013-08-08 05:35:00,
2013-08-08 01:37:00,70.0,64.2,30.16,SSE,158,2.3,0.0,82,0.00,CLR,,0.00,WeatherDisplay:10.37,2013-08-08 05:37:00,
2013-08-08 01:39:00,70.0,64.2,30.16,SSE,158,2.3,0.0,82,0.00,CLR,,0.00,WeatherDisplay:10.37,2013-08-08 05:39:00,
2013-08-08 01:40:00,70.0,64.2,30.16,SSE,158,0.0,0.0,82,0.00,CLR,,0.00,WeatherDisplay:10.37,2013-08-08 05:40:00,
2013-08-08 01:43:00,70.0,64.2,30.16,SE,135,0.0,1.2,82,0.00,CLR,,0.00,WeatherDisplay:10.37,2013-08-08 05:43:00,
2013-08-08 01:44:00,70.0,64.2,30.16,SSE,158,1.2,1.2,82,0.00,CLR,,0.00,WeatherDisplay:10.37,2013-08-08 05:44:00,
2013-08-08 01:45:00,70.0,64.2,30.16,SSE,158,1.2,1.2,82,0.00,CLR,,0.00,WeatherDisplay:10.37,2013-08-08 05:45:00,
2013-08-08 01:48:00,70.0,64.2,30.16,South,180,1.2,0.0,82,0.00,CLR,,0.00,WeatherDisplay:10.37,2013-08-08 05:48:00,
2013-08-08 01:49:00,70.0,64.2,30.16,SE,135,1.2,2.4,82,0.00,CLR,,0.00,WeatherDisplay:10.37,2013-08-08 05:49:00,
2013-08-08 01:50:00,70.0,64.2,30.16,SE,135,2.3,2.4,82,0.00,CLR,,0.00,WeatherDisplay:10.37,2013-08-08 05:50:00,
2013-08-08 01:53:00,70.0,64.2,30.16,SSE,158,2.3,2.3,82,0.00,CLR,,0.00,WeatherDisplay:10.37,2013-08-08 05:53:00,
2013-08-08 01:55:00,70.0,64.2,30.16,SE,135,2.3,2.3,82,0.00,CLR,,0.00,WeatherDisplay:10.37,2013-08-08 05:55:00,
2013-08-08 01:56:00,70.0,64.2,30.16,SE,135,2.3,2.3,82,0.00,CLR,,0.00,WeatherDisplay:10.37,2013-08-08 05:56:00,
2013-08-08 01:58:00,70.0,64.2,30.15,SE,135,1.2,0.0,82,0.00,CLR,,0.00,WeatherDisplay:10.37,2013-08-08 05:58:00,
2013-08-08 02:00:00,70.0,64.2,30.15,SE,144,0.0,1.0,82,0.00,CLR,CLR,0.00,WeatherDisplay:10.37,2013-08-08 06:00:00,
2013-08-08 02:01:00,70.0,64.2,30.16,SE,135,1.2,1.4,82,0.00,CLR,,0.00,WeatherDisplay:10.37,2013-08-08 06:01:00,
2013-08-08 02:03:00,70.0,64.2,30.16,SSW,202,2.3,0.0,82,0.00,CLR,,0.00,WeatherDisplay:10.37,2013-08-08 06:03:00,
2013-08-08 02:05:00,70.0,64.2,30.15,SSW,202,0.0,0.5,82,0.00,CLR,,0.00,WeatherDisplay:10.37,2013-08-08 06:05:00,
2013-08-08 02:06:00,70.0,64.2,30.15,SSE,158,0.0,0.5,82,0.00,CLR,,0.00,WeatherDisplay:10.37,2013-08-08 06:06:00,
2013-08-08 02:09:00,70.0,64.2,30.15,SSE,158,2.3,2.3,82,0.00,CLR,,0.00,WeatherDisplay:10.37,2013-08-08 06:09:00,
2013-08-08 02:10:00,70.0,64.2,30.15,SSW,202,2.3,2.3,82,0.00,CLR,,0.00,WeatherDisplay:10.37,2013-08-08 06:10:00,
2013-08-08 02:11:00,70.0,64.2,30.15,SSW,202,2.3,2.3,82,0.00,CLR,,0.00,WeatherDisplay:10.37,2013-08-08 06:11:00,
2013-08-08 02:15:00,70.0,64.2,30.15,South,180,2.3,2.3,82,0.00,CLR,,0.00,WeatherDisplay:10.37,2013-08-08 06:15:00,
2013-08-08 02:16:00,70.0,64.2,30.15,South,180,2.3,0.0,82,0.00,CLR,,0.00,WeatherDisplay:10.37,2013-08-08 06:16:00,
2013-08-08 02:17:00,70.0,64.2,30.15,WNW,292,2.3,0.0,82,0.00,CLR,,0.00,WeatherDisplay:10.37,2013-08-08 06:17:00,
2013-08-08 02:20:00,70.0,64.2,30.15,South,180,2.3,2.3,82,0.00,CLR,,0.00,WeatherDisplay:10.37,2013-08-08 06:20:00,
2013-08-08 02:21:00,70.0,64.2,30.15,South,180,2.3,0.0,82,0.00,CLR,,0.00,WeatherDisplay:10.37,2013-08-08 06:21:00,
2013-08-08 02:22:00,70.0,64.2,30.15,South,180,2.3,2.3,82,0.00,CLR,,0.00,WeatherDisplay:10.37,2013-08-08 06:22:00,
2013-08-08 02:25:00,70.0,64.2,30.15,South,185,0.0,2.0,82,0.00,CLR,CLR,0.00,WeatherDisplay:10.37,2013-08-08 06:25:00,
2013-08-08 02:26:00,70.0,64.2,30.15,WNW,292,1.2,1.2,82,0.00,CLR,,0.00,WeatherDisplay:10.37,2013-08-08 06:26:00,
2013-08-08 02:27:00,70.0,64.2,30.15,NE,45,1.2,1.2,82,0.00,CLR,,0.00,WeatherDisplay:10.37,2013-08-08 06:27:00,
2013-08-08 02:30:00,70.0,64.2,30.15,South,181,0.0,1.0,82,0.00,CLR,CLR,0.00,WeatherDisplay:10.37,2013-08-08 06:30:00,
2013-08-08 02:31:00,70.0,64.2,30.15,SSE,158,1.2,0.0,82,0.00,CLR,,0.00,WeatherDisplay:10.37,2013-08-08 06:31:00,
2013-08-08 02:32:00,70.0,64.2,30.15,SSE,158,1.2,1.2,82,0.00,CLR,,0.00,WeatherDisplay:10.37,2013-08-08 06:32:00,
2013-08-08 02:35:00,70.0,64.2,30.15,South,180,0.0,0.5,82,0.00,CLR,,0.00,WeatherDisplay:10.37,2013-08-08 06:35:00,
2013-08-08 02:36:00,70.0,64.2,30.15,South,180,0.0,0.5,82,0.00,CLR,,0.00,WeatherDisplay:10.37,2013-08-08 06:36:00,
2013-08-08 02:37:00,70.0,64.2,30.15,South,180,0.0,0.0,82,0.00,CLR,,0.00,WeatherDisplay:10.37,2013-08-08 06:37:00,
2013-08-08 02:40:00,70.0,64.2,30.15,SW,225,0.0,0.5,82,0.00,CLR,,0.00,WeatherDisplay:10.37,2013-08-08 06:40:00,
2013-08-08 02:41:00,70.0,64.2,30.14,South,180,1.2,1.2,82,0.00,CLR,,0.00,WeatherDisplay:10.37,2013-08-08 06:41:00,
2013-08-08 02:42:00,70.0,64.2,30.14,South,180,1.2,1.2,82,0.00,CLR,,0.00,WeatherDisplay:10.37,2013-08-08 06:42:00,
2013-08-08 02:45:00,70.0,64.2,30.14,South,180,2.3,2.3,82,0.00,CLR,,0.00,WeatherDisplay:10.37,2013-08-08 06:45:00,
2013-08-08 02:47:00,70.0,64.2,30.14,East,90,2.3,2.3,82,0.00,CLR,,0.00,WeatherDisplay:10.37,2013-08-08 06:47:00,
2013-08-08 02:48:00,70.0,64.2,30.15,South,180,2.3,2.3,82,0.00,CLR,,0.00,WeatherDisplay:10.37,2013-08-08 06:48:00,
2013-08-08 02:50:00,70.0,64.2,30.15,SSE,158,2.3,2.3,82,0.00,CLR,,0.00,WeatherDisplay:10.37,2013-08-08 06:50:00,
2013-08-08 02:52:00,70.0,64.2,30.14,SSE,158,1.2,1.2,82,0.00,CLR,,0.00,WeatherDisplay:10.37,2013-08-08 06:52:00,
2013-08-08 02:53:00,70.0,64.2,30.14,SE,135,1.2,1.2,82,0.00,CLR,,0.00,WeatherDisplay:10.37,2013-08-08 06:53:00,
2013-08-08 02:55:00,70.0,64.2,30.14,SE,135,1.2,1.2,82,0.00,CLR,,0.00,WeatherDisplay:10.37,2013-08-08 06:55:00,
2013-08-08 02:57:00,70.0,64.2,30.14,SE,135,1.2,1.2,82,0.00,CLR,,0.00,WeatherDisplay:10.37,2013-08-08 06:57:00,
2013-08-08 02:58:00,70.0,64.2,30.14,South,180,0.0,0.5,82,0.00,CLR,,0.00,WeatherDisplay:10.37,2013-08-08 06:58:00,
2013-08-08 03:00:00,70.0,64.2,30.15,South,180,2.3,3.1,82,0.00,CLR,,0.00,WeatherDisplay:10.37,2013-08-08 07:00:00,
2013-08-08 03:02:00,70.0,64.2,30.14,SSE,158,3.5,3.5,82,0.00,CLR,,0.00,WeatherDisplay:10.37,2013-08-08 07:02:00,
2013-08-08 03:03:00,70.0,64.2,30.14,SSE,158,3.5,3.5,82,0.00,CLR,,0.00,WeatherDisplay:10.37,2013-08-08 07:03:00,
2013-08-08 03:06:00,70.0,64.2,30.14,South,180,2.3,2.3,82,0.00,CLR,,0.00,WeatherDisplay:10.37,2013-08-08 07:06:00,
2013-08-08 03:07:00,70.0,64.2,30.14,SE,135,2.3,2.3,82,0.00,CLR,,0.00,WeatherDisplay:10.37,2013-08-08 07:07:00,
2013-08-08 03:08:00,70.0,64.2,30.14,SE,135,2.3,2.3,82,0.00,CLR,,0.00,WeatherDisplay:10.37,2013-08-08 07:08:00,
2013-08-08 03:11:00,70.0,64.2,30.14,SSE,158,2.3,2.3,82,0.00,CLR,,0.00,WeatherDisplay:10.37,2013-08-08 07:11:00,
2013-08-08 03:12:00,70.0,64.2,30.14,SSE,158,2.3,2.3,82,0.00,CLR,,0.00,WeatherDisplay:10.37,2013-08-08 07:12:00,
2013-08-08 03:13:00,70.0,64.2,30.14,SE,135,2.3,0.0,82,0.00,CLR,,0.00,WeatherDisplay:10.37,2013-08-08 07:13:00,
2013-08-08 03:14:00,70.0,64.2,30.14,SSE,158,2.3,2.3,82,0.00,CLR,,0.00,WeatherDisplay:10.37,2013-08-08 07:14:00,
2013-08-08 03:16:00,70.0,64.2,30.14,SSE,158,2.3,2.3,82,0.00,CLR,,0.00,WeatherDisplay:10.37,2013-08-08 07:16:00,
2013-08-08 03:18:00,70.0,64.2,30.14,SSE,158,2.3,2.3,82,0.00,CLR,,0.00,WeatherDisplay:10.37,2013-08-08 07:18:00,
2013-08-08 03:19:00,70.0,64.2,30.14,South,180,2.3,2.3,82,0.00,CLR,,0.00,WeatherDisplay:10.37,2013-08-08 07:19:00,
2013-08-08 03:21:00,70.0,64.2,30.14,South,180,1.4,1.4,82,0.00,CLR,,0.00,WeatherDisplay:10.37,2013-08-08 07:21:00,
2013-08-08 03:23:00,70.0,64.2,30.14,SSE,158,1.2,1.6,82,0.00,CLR,,0.00,WeatherDisplay:10.37,2013-08-08 07:23:00,
2013-08-08 03:24:00,70.0,64.2,30.14,South,180,1.2,1.4,82,0.00,CLR,,0.00,WeatherDisplay:10.37,2013-08-08 07:24:00,
2013-08-08 03:27:00,70.0,64.6,30.14,SE,135,1.2,1.8,83,0.00,CLR,,0.00,WeatherDisplay:10.37,2013-08-08 07:27:00,
2013-08-08 03:28:00,70.0,64.6,30.14,SE,135,3.5,3.5,83,0.00,CLR,,0.00,WeatherDisplay:10.37,2013-08-08 07:28:00,
2013-08-08 03:29:00,70.0,64.6,30.14,ENE,68,3.5,3.5,83,0.00,CLR,,0.00,WeatherDisplay:10.37,2013-08-08 07:29:00,
2013-08-08 03:30:00,69.8,64.4,30.14,SSE,158,3.5,3.5,83,0.00,CLR,,0.00,WeatherDisplay:10.37,2013-08-08 07:30:00,
2013-08-08 03:32:00,69.8,64.4,30.14,SSE,158,0.0,1.8,83,0.00,CLR,,0.00,WeatherDisplay:10.37,2013-08-08 07:32:00,
2013-08-08 03:33:00,69.8,64.4,30.14,SSE,158,2.3,2.3,83,0.00,CLR,,0.00,WeatherDisplay:10.37,2013-08-08 07:33:00,
2013-08-08 03:34:00,69.8,64.4,30.14,South,180,2.3,2.3,83,0.00,CLR,,0.00,WeatherDisplay:10.37,2013-08-08 07:34:00,
2013-08-08 03:35:00,69.8,64.4,30.14,East,90,2.3,2.3,83,0.00,CLR,,0.00,WeatherDisplay:10.37,2013-08-08 07:35:00,
2013-08-08 03:37:00,69.8,64.4,30.14,SW,225,2.3,2.3,83,0.00,CLR,,0.00,WeatherDisplay:10.37,2013-08-08 07:37:00,
2013-08-08 03:38:00,69.8,64.4,30.14,SSE,158,2.3,2.3,83,0.00,CLR,,0.00,WeatherDisplay:10.37,2013-08-08 07:38:00,
2013-08-08 03:40:00,69.8,64.4,30.14,SSE,158,2.3,2.3,83,0.00,CLR,,0.00,WeatherDisplay:10.37,2013-08-08 07:40:00,
2013-08-08 03:41:00,69.8,64.4,30.14,South,180,2.3,2.3,83,0.00,CLR,,0.00,WeatherDisplay:10.37,2013-08-08 07:41:00,
2013-08-08 03:42:00,69.8,64.4,30.14,SW,225,2.3,2.3,83,0.00,CLR,,0.00,WeatherDisplay:10.37,2013-08-08 07:42:00,
2013-08-08 03:43:00,69.8,64.4,30.14,SE,135,1.2,1.8,83,0.00,CLR,,0.00,WeatherDisplay:10.37,2013-08-08 07:43:00,
2013-08-08 03:45:00,69.8,64.7,30.14,WNW,292,2.3,2.3,84,0.00,CLR,,0.00,WeatherDisplay:10.37,2013-08-08 07:45:00,
2013-08-08 03:46:00,69.8,64.7,30.14,SE,135,2.3,2.3,84,0.00,CLR,,0.00,WeatherDisplay:10.37,2013-08-08 07:46:00,
2013-08-08 03:48:00,69.8,64.4,30.14,SE,135,2.3,0.0,83,0.00,CLR,,0.00,WeatherDisplay:10.37,2013-08-08 07:48:00,
2013-08-08 03:50:00,69.6,64.2,30.14,SE,135,2.3,2.3,83,0.00,CLR,,0.00,WeatherDisplay:10.37,2013-08-08 07:50:00,
2013-08-08 03:51:00,69.6,64.6,30.14,SSE,158,2.3,2.3,84,0.00,CLR,,0.00,WeatherDisplay:10.37,2013-08-08 07:51:00,
2013-08-08 03:53:00,69.6,64.6,30.14,SE,135,2.3,2.3,84,0.00,CLR,,0.00,WeatherDisplay:10.37,2013-08-08 07:53:00,
2013-08-08 03:54:00,69.6,64.6,30.14,SSE,158,2.3,2.3,84,0.00,CLR,,0.00,WeatherDisplay:10.37,2013-08-08 07:54:00,
2013-08-08 03:55:00,69.6,64.6,30.14,South,180,1.2,1.2,84,0.00,CLR,,0.00,WeatherDisplay:10.37,2013-08-08 07:55:00,
2013-08-08 03:56:00,69.6,64.6,30.14,NE,45,1.2,0.0,84,0.00,CLR,,0.00,WeatherDisplay:10.37,2013-08-08 07:56:00,
2013-08-08 03:58:00,69.6,64.6,30.14,NE,45,1.2,0.0,84,0.00,CLR,,0.00,WeatherDisplay:10.37,2013-08-08 07:58:00,
2013-08-08 03:59:00,69.6,64.6,30.14,NE,45,0.0,0.2,84,0.00,CLR,,0.00,WeatherDisplay:10.37,2013-08-08 07:59:00,
2013-08-08 04:00:00,69.6,64.6,30.14,NE,45,0.0,0.0,84,0.00,CLR,,0.00,WeatherDisplay:10.37,2013-08-08 08:00:00,
2013-08-08 04:01:00,69.6,64.6,30.14,SSW,202,2.3,2.3,84,0.00,CLR,,0.00,WeatherDisplay:10.37,2013-08-08 08:01:00,
2013-08-08 04:03:00,69.6,64.6,30.14,SSE,158,2.3,2.3,84,0.00,CLR,,0.00,WeatherDisplay:10.37,2013-08-08 08:03:00,
2013-08-08 04:04:00,69.6,64.6,30.14,SE,135,2.3,2.3,84,0.00,CLR,,0.00,WeatherDisplay:10.37,2013-08-08 08:04:00,
2013-08-08 04:05:00,69.6,64.6,30.14,ESE,112,1.2,1.2,84,0.00,CLR,,0.00,WeatherDisplay:10.37,2013-08-08 08:05:00,
2013-08-08 04:07:00,69.6,64.6,30.14,WSW,248,1.2,1.2,84,0.00,CLR,,0.00,WeatherDisplay:10.37,2013-08-08 08:07:00,
2013-08-08 04:08:00,69.6,64.6,30.14,WNW,292,1.2,0.0,84,0.00,CLR,,0.00,WeatherDisplay:10.37,2013-08-08 08:08:00,
2013-08-08 04:09:00,69.6,64.6,30.14,SSE,158,2.3,2.3,84,0.00,CLR,,0.00,WeatherDisplay:10.37,2013-08-08 08:09:00,
2013-08-08 04:10:00,69.6,64.6,30.14,SSE,158,2.3,2.3,84,0.00,CLR,,0.00,WeatherDisplay:10.37,2013-08-08 08:10:00,
2013-08-08 04:12:00,69.6,64.6,30.14,SE,135,2.3,2.4,84,0.00,CLR,,0.00,WeatherDisplay:10.37,2013-08-08 08:12:00,
2013-08-08 04:13:00,69.6,64.6,30.13,East,90,2.3,2.3,84,0.00,CLR,,0.00,WeatherDisplay:10.37,2013-08-08 08:13:00,
2013-08-08 04:14:00,69.6,64.6,30.13,East,90,2.3,2.3,84,0.00,CLR,,0.00,WeatherDisplay:10.37,2013-08-08 08:14:00,
2013-08-08 04:15:00,69.4,64.4,30.14,SSE,158,1.2,1.2,84,0.00,CLR,,0.00,WeatherDisplay:10.37,2013-08-08 08:15:00,
2013-08-08 04:17:00,69.4,64.4,30.13,ESE,112,1.2,1.2,84,0.00,CLR,,0.00,WeatherDisplay:10.37,2013-08-08 08:17:00,
2013-08-08 04:18:00,69.4,64.4,30.13,SSE,158,1.2,2.4,84,0.00,CLR,,0.00,WeatherDisplay:10.37,2013-08-08 08:18:00,
2013-08-08 04:20:00,69.4,64.4,30.13,SSE,158,2.3,2.3,84,0.00,CLR,,0.00,WeatherDisplay:10.37,2013-08-08 08:20:00,
2013-08-08 04:21:00,69.4,64.4,30.13,SSE,158,2.3,2.4,84,0.00,CLR,,0.00,WeatherDisplay:10.37,2013-08-08 08:21:00,
2013-08-08 04:23:00,69.4,64.4,30.13,SSE,158,2.3,2.3,84,0.00,CLR,,0.00,WeatherDisplay:10.37,2013-08-08 08:23:00,
2013-08-08 04:25:00,69.4,64.4,30.14,South,180,3.5,3.5,84,0.00,CLR,,0.00,WeatherDisplay:10.37,2013-08-08 08:25:00,
2013-08-08 04:26:00,69.4,64.4,30.14,South,180,3.5,3.5,84,0.00,CLR,,0.00,WeatherDisplay:10.37,2013-08-08 08:26:00,
2013-08-08 04:29:00,69.4,64.4,30.14,ESE,112,1.2,4.0,84,0.00,CLR,,0.00,WeatherDisplay:10.37,2013-08-08 08:29:00,
2013-08-08 04:30:00,69.4,64.4,30.14,SSE,158,4.6,4.6,84,0.00,CLR,,0.00,WeatherDisplay:10.37,2013-08-08 08:30:00,
2013-08-08 04:31:00,69.4,64.7,30.14,SSE,158,4.6,4.6,85,0.00,CLR,,0.00,WeatherDisplay:10.37,2013-08-08 08:31:00,
2013-08-08 04:34:00,69.4,64.7,30.14,South,180,3.5,3.5,85,0.00,CLR,,0.00,WeatherDisplay:10.37,2013-08-08 08:34:00,
2013-08-08 04:35:00,69.4,64.7,30.14,SE,135,3.5,3.5,85,0.00,CLR,,0.00,WeatherDisplay:10.37,2013-08-08 08:35:00,
2013-08-08 04:36:00,69.4,65.1,30.14,NW,315,3.5,3.5,86,0.00,CLR,,0.00,WeatherDisplay:10.37,2013-08-08 08:36:00,
2013-08-08 04:39:00,69.4,65.1,30.14,SE,135,2.3,2.3,86,0.00,CLR,,0.00,WeatherDisplay:10.37,2013-08-08 08:39:00,
2013-08-08 04:40:00,69.4,65.1,30.13,SSE,158,2.3,2.3,86,0.00,CLR,,0.00,WeatherDisplay:10.37,2013-08-08 08:40:00,
2013-08-08 04:41:00,69.4,65.1,30.14,WSW,248,2.3,2.3,86,0.00,CLR,,0.00,WeatherDisplay:10.37,2013-08-08 08:41:00,
2013-08-08 04:44:00,69.3,64.9,30.13,ESE,112,2.9,2.9,86,0.00,CLR,,0.00,WeatherDisplay:10.37,2013-08-08 08:44:00,
2013-08-08 04:45:00,69.3,64.9,30.13,South,180,2.3,2.9,86,0.00,CLR,,0.00,WeatherDisplay:10.37,2013-08-08 08:45:00,
2013-08-08 04:46:00,69.3,64.9,30.13,South,180,2.3,2.9,86,0.00,CLR,,0.00,WeatherDisplay:10.37,2013-08-08 08:46:00,
2013-08-08 04:49:00,69.3,64.9,30.13,SE,135,2.3,3.8,86,0.00,CLR,,0.00,WeatherDisplay:10.37,2013-08-08 08:49:00,
2013-08-08 04:50:00,69.3,64.9,30.13,SSE,158,3.5,3.5,86,0.00,CLR,,0.00,WeatherDisplay:10.37,2013-08-08 08:50:00,
2013-08-08 04:51:00,69.3,64.9,30.13,SSE,158,3.5,3.5,86,0.00,CLR,,0.00,WeatherDisplay:10.37,2013-08-08 08:51:00,
2013-08-08 04:54:00,69.3,64.9,30.13,SE,135,2.3,2.3,86,0.00,CLR,,0.00,WeatherDisplay:10.37,2013-08-08 08:54:00,
2013-08-08 04:56:00,69.3,64.9,30.13,SSE,158,2.3,2.3,86,0.00,CLR,,0.00,WeatherDisplay:10.37,2013-08-08 08:56:00,
2013-08-08 04:57:00,69.3,64.9,30.13,SE,135,2.3,2.3,86,0.00,CLR,,0.00,WeatherDisplay:10.37,2013-08-08 08:57:00,
2013-08-08 04:59:00,69.3,64.9,30.13,SSE,158,2.3,0.0,86,0.00,CLR,,0.00,WeatherDisplay:10.37,2013-08-08 08:59:00,
2013-08-08 05:01:00,69.3,64.9,30.13,WSW,248,1.2,1.2,86,0.00,CLR,,0.00,WeatherDisplay:10.37,2013-08-08 09:01:00,
2013-08-08 05:02:00,69.3,64.9,30.13,SSW,202,1.2,1.2,86,0.00,CLR,,0.00,WeatherDisplay:10.37,2013-08-08 09:02:00,
2013-08-08 05:04:00,69.3,64.9,30.13,SSE,158,1.2,3.1,86,0.00,CLR,,0.00,WeatherDisplay:10.37,2013-08-08 09:04:00,
2013-08-08 05:05:00,69.3,64.9,30.13,SE,135,1.0,3.0,86,0.00,CLR,CLR,0.00,WeatherDisplay:10.37,2013-08-08 09:05:00,
2013-08-08 05:06:00,69.3,64.9,30.14,SSE,158,3.5,3.5,86,0.00,CLR,,0.00,WeatherDisplay:10.37,2013-08-08 09:06:00,
2013-08-08 05:07:00,69.3,64.9,30.13,South,180,3.5,3.5,86,0.00,CLR,,0.00,WeatherDisplay:10.37,2013-08-08 09:07:00,
2013-08-08 05:10:00,69.3,64.9,30.13,ENE,68,0.0,0.5,86,0.00,CLR,,0.00,WeatherDisplay:10.37,2013-08-08 09:10:00,
2013-08-08 05:11:00,69.3,64.9,30.13,SSE,158,1.2,1.2,86,0.00,CLR,,0.00,WeatherDisplay:10.37,2013-08-08 09:11:00,
2013-08-08 05:12:00,69.3,64.9,30.13,SE,135,3.5,3.5,86,0.00,CLR,,0.00,WeatherDisplay:10.37,2013-08-08 09:12:00,
2013-08-08 05:15:00,69.3,64.9,30.13,South,180,3.5,3.5,86,0.00,CLR,,0.00,WeatherDisplay:10.37,2013-08-08 09:15:00,
2013-08-08 05:16:00,69.3,64.9,30.13,SSE,158,2.3,0.0,86,0.00,CLR,,0.00,WeatherDisplay:10.37,2013-08-08 09:16:00,
2013-08-08 05:17:00,69.3,64.9,30.13,SSE,158,2.3,2.3,86,0.00,CLR,,0.00,WeatherDisplay:10.37,2013-08-08 09:17:00,
2013-08-08 05:18:00,69.3,64.9,30.13,SSE,158,0.0,0.5,86,0.00,CLR,,0.00,WeatherDisplay:10.37,2013-08-08 09:18:00,
2013-08-08 05:20:00,69.3,64.9,30.13,ESE,112,2.3,0.0,86,0.00,CLR,,0.00,WeatherDisplay:10.37,2013-08-08 09:20:00,
2013-08-08 05:21:00,69.3,64.9,30.13,ESE,112,2.3,0.0,86,0.00,CLR,,0.00,WeatherDisplay:10.37,2013-08-08 09:21:00,
2013-08-08 05:23:00,69.3,64.9,30.13,ESE,112,2.3,2.3,86,0.00,CLR,,0.00,WeatherDisplay:10.37,2013-08-08 09:23:00,
2013-08-08 05:25:00,69.3,64.9,30.13,SE,135,0.0,0.0,86,0.00,CLR,,0.00,WeatherDisplay:10.37,2013-08-08 09:25:00,
2013-08-08 05:26:00,69.3,64.9,30.13,SE,135,0.0,0.0,86,0.00,CLR,,0.00,WeatherDisplay:10.37,2013-08-08 09:26:00,
2013-08-08 05:27:00,69.3,64.9,30.13,SW,225,1.2,1.2,86,0.00,CLR,,0.00,WeatherDisplay:10.37,2013-08-08 09:27:00,
2013-08-08 05:28:00,69.3,64.9,30.13,SW,225,1.2,1.2,86,0.00,CLR,,0.00,WeatherDisplay:10.37,2013-08-08 09:28:00,
2013-08-08 05:30:00,69.3,64.9,30.13,South,180,0.0,1.2,86,0.00,CLR,,0.00,WeatherDisplay:10.37,2013-08-08 09:30:00,
2013-08-08 05:31:00,69.3,64.9,30.13,South,180,0.0,1.2,86,0.00,CLR,,0.00,WeatherDisplay:10.37,2013-08-08 09:31:00,
2013-08-08 05:32:00,69.3,65.2,30.13,SSW,202,2.3,2.3,87,0.00,CLR,,0.00,WeatherDisplay:10.37,2013-08-08 09:32:00,
2013-08-08 05:33:00,69.3,65.2,30.13,SSW,202,2.3,2.3,87,0.00,CLR,,0.00,WeatherDisplay:10.37,2013-08-08 09:33:00,
2013-08-08 05:35:00,69.3,65.2,30.13,SSE,158,1.2,0.0,87,0.00,CLR,,0.00,WeatherDisplay:10.37,2013-08-08 09:35:00,
2013-08-08 05:36:00,69.3,65.2,30.13,SSE,158,1.2,0.0,87,0.00,CLR,,0.00,WeatherDisplay:10.37,2013-08-08 09:36:00,
2013-08-08 05:37:00,69.3,65.2,30.13,South,180,1.2,1.2,87,0.00,CLR,,0.00,WeatherDisplay:10.37,2013-08-08 09:37:00,
2013-08-08 05:38:00,69.3,65.2,30.13,South,180,0.0,0.5,87,0.00,CLR,,0.00,WeatherDisplay:10.37,2013-08-08 09:38:00,
2013-08-08 05:40:00,69.3,65.2,30.13,East,90,1.2,1.2,87,0.00,CLR,,0.00,WeatherDisplay:10.37,2013-08-08 09:40:00,
2013-08-08 05:41:00,69.3,65.2,30.13,East,90,1.2,1.2,87,0.00,CLR,,0.00,WeatherDisplay:10.37,2013-08-08 09:41:00,
2013-08-08 05:42:00,69.3,65.2,30.14,ESE,112,1.2,1.2,87,0.00,CLR,,0.00,WeatherDisplay:10.37,2013-08-08 09:42:00,
2013-08-08 05:43:00,69.3,65.2,30.13,South,180,1.2,1.2,87,0.00,CLR,,0.00,WeatherDisplay:10.37,2013-08-08 09:43:00,
2013-08-08 05:44:00,69.3,65.2,30.13,South,180,1.2,1.2,87,0.00,CLR,,0.00,WeatherDisplay:10.37,2013-08-08 09:44:00,
2013-08-08 05:46:00,69.3,65.2,30.14,South,180,1.2,1.2,87,0.00,CLR,,0.00,WeatherDisplay:10.37,2013-08-08 09:46:00,
2013-08-08 05:48:00,69.3,65.2,30.14,SE,135,1.2,1.2,87,0.00,CLR,,0.00,WeatherDisplay:10.37,2013-08-08 09:48:00,
2013-08-08 05:49:00,69.3,65.2,30.13,SSE,158,1.2,1.4,87,0.00,CLR,,0.00,WeatherDisplay:10.37,2013-08-08 09:49:00,
2013-08-08 05:51:00,69.3,65.2,30.14,SE,135,1.2,1.2,87,0.00,CLR,,0.00,WeatherDisplay:10.37,2013-08-08 09:51:00,
2013-08-08 05:53:00,69.3,65.2,30.14,SE,135,2.3,2.3,87,0.00,CLR,,0.00,WeatherDisplay:10.37,2013-08-08 09:53:00,
2013-08-08 05:54:00,69.3,65.2,30.14,SE,135,2.3,2.3,87,0.00,CLR,,0.00,WeatherDisplay:10.37,2013-08-08 09:54:00,
2013-08-08 05:56:00,69.3,65.2,30.14,ENE,68,1.2,1.4,87,0.00,CLR,,0.00,WeatherDisplay:10.37,2013-08-08 09:56:00,
2013-08-08 05:57:00,69.3,65.6,30.14,South,180,1.2,1.2,88,0.00,CLR,,0.00,WeatherDisplay:10.37,2013-08-08 09:57:00,
2013-08-08 05:58:00,69.3,65.6,30.14,SSE,158,2.3,2.3,88,0.00,CLR,,0.00,WeatherDisplay:10.37,2013-08-08 09:58:00,
2013-08-08 05:59:00,69.3,65.6,30.14,SSE,158,2.3,2.3,88,0.00,CLR,,0.00,WeatherDisplay:10.37,2013-08-08 09:59:00,
2013-08-08 06:01:00,69.3,65.6,30.14,SE,135,2.3,2.3,88,0.00,CLR,,0.00,WeatherDisplay:10.37,2013-08-08 10:01:00,
2013-08-08 06:02:00,69.3,65.6,30.14,SE,135,2.3,2.3,88,0.00,CLR,,0.00,WeatherDisplay:10.37,2013-08-08 10:02:00,
2013-08-08 06:03:00,69.3,65.6,30.14,SE,135,3.5,3.5,88,0.00,CLR,,0.00,WeatherDisplay:10.37,2013-08-08 10:03:00,
2013-08-08 06:04:00,69.3,65.6,30.14,SE,135,3.5,3.5,88,0.00,CLR,,0.00,WeatherDisplay:10.37,2013-08-08 10:04:00,
2013-08-08 06:06:00,69.3,65.6,30.14,SSE,158,4.6,4.6,88,0.00,CLR,,0.00,WeatherDisplay:10.37,2013-08-08 10:06:00,
2013-08-08 06:08:00,69.3,65.6,30.14,SSE,158,4.6,4.6,88,0.00,CLR,,0.00,WeatherDisplay:10.37,2013-08-08 10:08:00,
2013-08-08 06:09:00,69.3,65.6,30.14,East,90,2.3,2.3,88,0.00,CLR,,0.00,WeatherDisplay:10.37,2013-08-08 10:09:00,
2013-08-08 06:11:00,69.3,65.6,30.14,SW,225,2.3,2.3,88,0.00,CLR,,0.00,WeatherDisplay:10.37,2013-08-08 10:11:00,
2013-08-08 06:13:00,69.3,65.6,30.14,SSE,158,2.3,2.4,88,0.00,CLR,,0.00,WeatherDisplay:10.37,2013-08-08 10:13:00,
2013-08-08 06:14:00,69.3,65.6,30.14,SSE,158,2.3,2.3,88,0.00,CLR,,0.00,WeatherDisplay:10.37,2013-08-08 10:14:00,
2013-08-08 06:15:00,69.3,65.6,30.14,SE,135,2.3,2.3,88,0.00,CLR,,0.00,WeatherDisplay:10.37,2013-08-08 10:15:00,
2013-08-08 06:17:00,69.3,65.6,30.14,East,90,1.2,2.0,88,0.00,CLR,,0.00,WeatherDisplay:10.37,2013-08-08 10:17:00,
2013-08-08 06:18:00,69.3,65.6,30.14,ESE,112,2.3,2.3,88,0.00,CLR,,0.00,WeatherDisplay:10.37,2013-08-08 10:18:00,
2013-08-08 06:19:00,69.3,65.6,30.14,NE,45,4.6,4.6,88,0.00,CLR,,0.00,WeatherDisplay:10.37,2013-08-08 10:19:00,
2013-08-08 06:20:00,69.3,65.6,30.14,SE,135,5.8,5.8,88,0.00,CLR,,0.00,WeatherDisplay:10.37,2013-08-08 10:20:00,
2013-08-08 06:22:00,69.3,65.6,30.14,South,180,5.8,5.8,88,0.00,CLR,,0.00,WeatherDisplay:10.37,2013-08-08 10:22:00,
2013-08-08 06:23:00,69.3,65.6,30.14,SSE,158,2.3,2.3,88,0.00,CLR,,0.00,WeatherDisplay:10.37,2013-08-08 10:23:00,
2013-08-08 06:24:00,69.3,65.6,30.14,South,180,2.3,2.3,88,0.00,CLR,,0.00,WeatherDisplay:10.37,2013-08-08 10:24:00,
2013-08-08 06:25:00,69.3,65.6,30.14,South,180,2.3,2.3,88,0.00,CLR,,0.00,WeatherDisplay:10.37,2013-08-08 10:25:00,
2013-08-08 06:26:00,69.3,65.6,30.14,NNE,22,2.3,2.3,88,0.00,CLR,,0.00,WeatherDisplay:10.37,2013-08-08 10:26:00,
2013-08-08 06:27:00,69.3,65.6,30.14,SSE,158,1.2,1.2,88,0.00,CLR,,0.00,WeatherDisplay:10.37,2013-08-08 10:27:00,
2013-08-08 06:29:00,69.3,65.6,30.14,SSW,202,1.2,1.2,88,0.00,CLR,,0.00,WeatherDisplay:10.37,2013-08-08 10:29:00,
2013-08-08 06:30:00,69.3,65.6,30.14,SSE,158,1.2,0.0,88,0.00,CLR,,0.00,WeatherDisplay:10.37,2013-08-08 10:30:00,
2013-08-08 06:31:00,69.3,65.6,30.14,SE,135,3.5,3.5,88,0.00,CLR,,0.00,WeatherDisplay:10.37,2013-08-08 10:31:00,
2013-08-08 06:33:00,69.3,65.6,30.14,SSE,158,3.5,3.5,88,0.00,CLR,,0.00,WeatherDisplay:10.37,2013-08-08 10:33:00,
2013-08-08 06:34:00,69.3,65.6,30.15,SSE,158,3.5,3.5,88,0.00,CLR,,0.00,WeatherDisplay:10.37,2013-08-08 10:34:00,
2013-08-08 06:35:00,69.3,65.6,30.14,NW,315,2.3,2.3,88,0.00,CLR,,0.00,WeatherDisplay:10.37,2013-08-08 10:35:00,
2013-08-08 06:36:00,69.3,65.6,30.14,South,180,2.3,2.3,88,0.00,CLR,,0.00,WeatherDisplay:10.37,2013-08-08 10:36:00,
2013-08-08 06:38:00,69.3,65.6,30.14,SSE,158,2.3,2.3,88,0.00,CLR,,0.00,WeatherDisplay:10.37,2013-08-08 10:38:00,
2013-08-08 06:39:00,69.3,65.6,30.14,SSE,158,2.3,2.3,88,0.00,CLR,,0.00,WeatherDisplay:10.37,2013-08-08 10:39:00,
2013-08-08 06:40:00,69.3,65.6,30.14,SSE,155,1.0,2.0,88,0.00,CLR,CLR,0.00,WeatherDisplay:10.37,2013-08-08 10:40:00,
2013-08-08 06:41:00,69.3,65.6,30.15,SE,135,2.3,2.3,88,0.00,CLR,,0.00,WeatherDisplay:10.37,2013-08-08 10:41:00,
2013-08-08 06:43:00,69.3,65.6,30.14,SE,135,3.5,3.5,88,0.00,CLR,,0.00,WeatherDisplay:10.37,2013-08-08 10:43:00,
2013-08-08 06:44:00,69.3,65.6,30.14,SSE,158,3.5,3.5,88,0.00,CLR,,0.00,WeatherDisplay:10.37,2013-08-08 10:44:00,
2013-08-08 06:46:00,69.3,65.6,30.14,East,90,3.5,3.5,88,0.00,CLR,,0.00,WeatherDisplay:10.37,2013-08-08 10:46:00,
2013-08-08 06:48:00,69.3,65.6,30.14,SE,135,2.3,3.3,88,0.00,CLR,,0.00,WeatherDisplay:10.37,2013-08-08 10:48:00,
2013-08-08 06:49:00,69.3,65.6,30.14,SE,135,3.5,3.5,88,0.00,CLR,,0.00,WeatherDisplay:10.37,2013-08-08 10:49:00,
2013-08-08 06:51:00,69.3,65.6,30.13,SSE,158,4.6,4.6,88,0.00,CLR,,0.00,WeatherDisplay:10.37,2013-08-08 10:51:00,
2013-08-08 06:52:00,69.3,65.6,30.13,ESE,112,4.6,4.6,88,0.00,CLR,,0.00,WeatherDisplay:10.37,2013-08-08 10:52:00,
2013-08-08 06:53:00,69.3,65.6,30.13,SSW,202,1.2,1.8,88,0.00,CLR,,0.00,WeatherDisplay:10.37,2013-08-08 10:53:00,
2013-08-08 06:54:00,69.3,65.6,30.13,SSE,158,2.3,2.3,88,0.00,CLR,,0.00,WeatherDisplay:10.37,2013-08-08 10:54:00,
2013-08-08 06:57:00,69.3,65.6,30.14,East,90,2.3,2.3,88,0.00,CLR,,0.00,WeatherDisplay:10.37,2013-08-08 10:57:00,
2013-08-08 06:58:00,69.3,65.6,30.13,WSW,248,1.2,1.2,88,0.00,CLR,,0.00,WeatherDisplay:10.37,2013-08-08 10:58:00,
2013-08-08 06:59:00,69.3,65.6,30.14,SE,135,1.2,1.2,88,0.00,CLR,,0.00,WeatherDisplay:10.37,2013-08-08 10:59:00,
2013-08-08 07:00:00,69.3,65.6,30.14,SSE,159,0.0,2.0,88,0.00,CLR,CLR,0.00,WeatherDisplay:10.37,2013-08-08 11:00:00,
2013-08-08 07:02:00,69.3,65.6,30.14,South,180,2.3,2.3,88,0.00,CLR,,0.00,WeatherDisplay:10.37,2013-08-08 11:02:00,
2013-08-08 07:04:00,69.3,65.6,30.13,SE,135,2.3,2.3,88,0.00,CLR,,0.00,WeatherDisplay:10.37,2013-08-08 11:04:00,
2013-08-08 07:05:00,69.3,65.2,30.14,South,180,2.3,2.3,87,0.00,CLR,,0.00,WeatherDisplay:10.37,2013-08-08 11:05:00,
2013-08-08 07:07:00,69.3,65.6,30.14,South,180,2.3,2.3,88,0.00,CLR,,0.00,WeatherDisplay:10.37,2013-08-08 11:07:00,
2013-08-08 07:09:00,69.3,65.6,30.14,SSW,202,2.3,2.3,88,0.00,CLR,,0.00,WeatherDisplay:10.37,2013-08-08 11:09:00,
2013-08-08 07:11:00,69.3,65.6,30.14,SW,225,2.3,2.3,88,0.00,CLR,,0.00,WeatherDisplay:10.37,2013-08-08 11:11:00,
2013-08-08 07:12:00,69.3,65.6,30.14,SSE,158,2.3,2.6,88,0.00,CLR,,0.00,WeatherDisplay:10.37,2013-08-08 11:12:00,
2013-08-08 07:14:00,69.3,65.2,30.14,SSW,202,2.3,2.3,87,0.00,CLR,,0.00,WeatherDisplay:10.37,2013-08-08 11:14:00,
2013-08-08 07:16:00,69.3,65.2,30.14,SSW,202,0.0,0.5,87,0.00,CLR,,0.00,WeatherDisplay:10.37,2013-08-08 11:16:00,
2013-08-08 07:17:00,69.3,65.2,30.14,SSW,202,0.0,0.0,87,0.00,CLR,,0.00,WeatherDisplay:10.37,2013-08-08 11:17:00,
2013-08-08 07:19:00,69.3,65.2,30.14,South,180,1.2,1.2,87,0.00,CLR,,0.00,WeatherDisplay:10.37,2013-08-08 11:19:00,
2013-08-08 07:20:00,69.3,65.2,30.14,South,180,1.2,1.2,87,0.00,CLR,,0.00,WeatherDisplay:10.37,2013-08-08 11:20:00,
2013-08-08 07:21:00,69.3,65.2,30.13,SSE,158,1.2,1.2,87,0.00,CLR,,0.00,WeatherDisplay:10.37,2013-08-08 11:21:00,
2013-08-08 07:22:00,69.3,65.2,30.13,SSE,158,1.2,1.2,87,0.00,CLR,,0.00,WeatherDisplay:10.37,2013-08-08 11:22:00,
2013-08-08 07:23:00,69.3,65.2,30.14,SSE,158,1.2,0.0,87,0.00,CLR,,0.00,WeatherDisplay:10.37,2013-08-08 11:23:00,
2013-08-08 07:25:00,69.3,65.2,30.14,NW,315,2.3,2.3,87,0.00,CLR,,0.00,WeatherDisplay:10.37,2013-08-08 11:25:00,
2013-08-08 07:27:00,69.3,65.2,30.14,SSE,158,2.3,0.0,87,0.00,CLR,,0.00,WeatherDisplay:10.37,2013-08-08 11:27:00,
2013-08-08 07:28:00,69.3,65.2,30.14,SSE,158,0.0,0.2,87,0.00,CLR,,0.00,WeatherDisplay:10.37,2013-08-08 11:28:00,
2013-08-08 07:30:00,69.3,65.2,30.14,SSE,158,1.2,1.6,87,0.00,CLR,,0.00,WeatherDisplay:10.37,2013-08-08 11:30:00,
2013-08-08 07:32:00,69.3,65.2,30.14,SSE,158,1.2,2.4,87,0.00,CLR,,0.00,WeatherDisplay:10.37,2013-08-08 11:32:00,
2013-08-08 07:33:00,69.3,65.2,30.14,SE,135,2.3,2.3,87,0.00,CLR,,0.00,WeatherDisplay:10.37,2013-08-08 11:33:00,
2013-08-08 07:35:00,69.3,65.2,30.14,SE,135,1.2,1.2,87,0.00,CLR,,0.00,WeatherDisplay:10.37,2013-08-08 11:35:00,
2013-08-08 07:36:00,69.3,65.2,30.14,SE,135,1.2,0.0,87,0.00,CLR,,0.00,WeatherDisplay:10.37,2013-08-08 11:36:00,
2013-08-08 07:37:00,69.3,65.2,30.14,ESE,112,1.2,1.2,87,0.00,CLR,,0.00,WeatherDisplay:10.37,2013-08-08 11:37:00,
2013-08-08 07:38:00,69.3,65.2,30.14,ESE,112,1.2,1.2,87,0.00,CLR,,0.00,WeatherDisplay:10.37,2013-08-08 11:38:00,
2013-08-08 07:40:00,69.3,65.2,30.14,SSE,158,1.2,1.2,87,0.00,CLR,,0.00,WeatherDisplay:10.37,2013-08-08 11:40:00,
2013-08-08 07:41:00,69.3,65.2,30.14,SSE,158,1.2,1.2,87,0.00,CLR,,0.00,WeatherDisplay:10.37,2013-08-08 11:41:00,
2013-08-08 07:42:00,69.3,65.2,30.14,South,180,1.2,0.0,87,0.00,CLR,,0.00,WeatherDisplay:10.37,2013-08-08 11:42:00,
2013-08-08 07:43:00,69.3,65.2,30.14,South,180,1.2,0.0,87,0.00,CLR,,0.00,WeatherDisplay:10.37,2013-08-08 11:43:00,
2013-08-08 07:45:00,69.3,65.2,30.13,South,180,0.0,1.2,87,0.00,CLR,,0.00,WeatherDisplay:10.37,2013-08-08 11:45:00,
2013-08-08 07:46:00,69.3,65.2,30.13,South,180,1.2,1.2,87,0.00,CLR,,0.00,WeatherDisplay:10.37,2013-08-08 11:46:00,
2013-08-08 07:47:00,69.3,65.2,30.14,ESE,112,1.2,1.2,87,0.00,CLR,,0.00,WeatherDisplay:10.37,2013-08-08 11:47:00,
2013-08-08 07:48:00,69.3,65.2,30.14,ESE,112,1.2,1.2,87,0.00,CLR,,0.00,WeatherDisplay:10.37,2013-08-08 11:48:00,
2013-08-08 07:49:00,69.3,65.2,30.14,SSE,158,1.2,1.2,87,0.00,CLR,,0.00,WeatherDisplay:10.37,2013-08-08 11:49:00,
2013-08-08 07:51:00,69.3,65.2,30.14,SSE,158,1.2,1.2,87,0.00,CLR,,0.00,WeatherDisplay:10.37,2013-08-08 11:51:00,
2013-08-08 07:52:00,69.3,65.2,30.14,SSW,202,1.2,1.2,87,0.00,CLR,,0.00,WeatherDisplay:10.37,2013-08-08 11:52:00,
2013-08-08 07:53:00,69.3,65.2,30.14,South,180,0.0,1.2,87,0.00,CLR,,0.00,WeatherDisplay:10.37,2013-08-08 11:53:00,
2013-08-08 07:54:00,69.3,65.2,30.14,South,180,0.0,1.2,87,0.00,CLR,,0.00,WeatherDisplay:10.37,2013-08-08 11:54:00,
2013-08-08 07:56:00,69.3,65.2,30.14,SSE,158,1.2,1.2,87,0.00,CLR,,0.00,WeatherDisplay:10.37,2013-08-08 11:56:00,
2013-08-08 07:58:00,69.3,65.2,30.14,SSE,158,2.3,2.3,87,0.00,CLR,,0.00,WeatherDisplay:10.37,2013-08-08 11:58:00,
2013-08-08 07:59:00,69.3,65.2,30.14,SSE,158,2.3,2.3,87,0.00,CLR,,0.00,WeatherDisplay:10.37,2013-08-08 11:59:00,
2013-08-08 08:01:00,69.1,65.0,30.14,SSE,158,2.3,0.0,87,0.00,CLR,,0.00,WeatherDisplay:10.37,2013-08-08 12:01:00,
2013-08-08 08:02:00,69.1,65.0,30.14,SSE,158,2.3,0.0,87,0.00,CLR,,0.00,WeatherDisplay:10.37,2013-08-08 12:02:00,
2013-08-08 08:04:00,69.1,65.0,30.14,SE,135,1.2,1.2,87,0.00,CLR,,0.00,WeatherDisplay:10.37,2013-08-08 12:04:00,
2013-08-08 08:06:00,69.1,65.0,30.14,ESE,112,2.3,2.3,87,0.00,CLR,,0.00,WeatherDisplay:10.37,2013-08-08 12:06:00,
2013-08-08 08:07:00,69.1,65.0,30.14,ESE,112,2.3,2.3,87,0.00,CLR,,0.00,WeatherDisplay:10.37,2013-08-08 12:07:00,
2013-08-08 08:09:00,69.1,65.0,30.14,East,90,2.3,2.3,87,0.00,CLR,,0.00,WeatherDisplay:10.37,2013-08-08 12:09:00,
2013-08-08 08:11:00,69.1,65.0,30.14,SSE,158,1.2,1.2,87,0.00,CLR,,0.00,WeatherDisplay:10.37,2013-08-08 12:11:00,
2013-08-08 08:12:00,69.1,65.0,30.14,SSE,158,1.2,1.2,87,0.00,CLR,,0.00,WeatherDisplay:10.37,2013-08-08 12:12:00,
2013-08-08 08:14:00,69.1,65.0,30.14,ESE,112,5.8,5.8,87,0.00,CLR,,0.00,WeatherDisplay:10.37,2013-08-08 12:14:00,
2013-08-08 08:17:00,69.1,65.0,30.15,SSE,158,2.3,3.3,87,0.00,CLR,,0.00,WeatherDisplay:10.37,2013-08-08 12:17:00,
2013-08-08 08:19:00,69.1,65.0,30.16,SSE,158,3.5,3.5,87,0.00,CLR,,0.00,WeatherDisplay:10.37,2013-08-08 12:19:00,
2013-08-08 08:20:00,69.1,65.0,30.16,SSE,158,3.5,3.5,87,0.00,CLR,,0.00,WeatherDisplay:10.37,2013-08-08 12:20:00,
2013-08-08 08:22:00,69.1,65.0,30.16,South,180,2.3,2.3,87,0.00,CLR,,0.00,WeatherDisplay:10.37,2013-08-08 12:22:00,
2013-08-08 08:25:00,68.9,64.9,30.16,SE,135,1.2,1.6,87,0.00,CLR,,0.00,WeatherDisplay:10.37,2013-08-08 12:25:00,
2013-08-08 08:27:00,68.9,65.2,30.16,SSW,202,1.2,1.2,88,0.00,CLR,,0.00,WeatherDisplay:10.37,2013-08-08 12:27:00,
2013-08-08 08:30:00,68.9,64.9,30.16,SE,135,1.2,1.2,87,0.00,CLR,,0.00,WeatherDisplay:10.37,2013-08-08 12:30:00,
2013-08-08 08:31:00,68.9,64.9,30.17,South,180,0.0,0.9,87,0.00,CLR,,0.00,WeatherDisplay:10.37,2013-08-08 12:31:00,
2013-08-08 08:33:00,68.9,65.2,30.16,SSE,158,1.2,2.6,88,0.00,CLR,,0.00,WeatherDisplay:10.37,2013-08-08 12:33:00,
2013-08-08 08:35:00,68.9,65.2,30.17,South,180,2.3,2.3,88,0.00,CLR,,0.00,WeatherDisplay:10.37,2013-08-08 12:35:00,
2013-08-08 08:36:00,68.9,65.2,30.16,SSE,158,2.3,2.3,88,0.00,CLR,,0.00,WeatherDisplay:10.37,2013-08-08 12:36:00,
2013-08-08 08:38:00,68.9,64.9,30.16,SE,135,1.2,1.2,87,0.00,CLR,,0.00,WeatherDisplay:10.37,2013-08-08 12:38:00,
2013-08-08 08:40:00,68.9,65.2,30.16,SE,135,0.0,0.0,88,0.00,CLR,,0.00,WeatherDisplay:10.37,2013-08-08 12:40:00,
2013-08-08 08:41:00,68.9,65.2,30.16,SE,135,0.0,0.0,88,0.00,CLR,,0.00,WeatherDisplay:10.37,2013-08-08 12:41:00,
2013-08-08 08:43:00,68.9,65.2,30.16,SE,135,2.3,2.3,88,0.00,CLR,,0.00,WeatherDisplay:10.37,2013-08-08 12:43:00,
2013-08-08 08:45:00,69.1,65.4,30.15,SSE,158,1.2,1.2,88,0.00,CLR,,0.00,WeatherDisplay:10.37,2013-08-08 12:45:00,
2013-08-08 08:46:00,69.1,65.4,30.15,SSE,158,1.2,1.2,88,0.00,CLR,,0.00,WeatherDisplay:10.37,2013-08-08 12:46:00,
2013-08-08 08:48:00,69.1,65.4,30.15,SSE,158,1.2,1.2,88,0.00,CLR,,0.00,WeatherDisplay:10.37,2013-08-08 12:48:00,
2013-08-08 08:50:00,69.1,65.4,30.15,SE,135,1.2,1.2,88,0.00,CLR,,0.00,WeatherDisplay:10.37,2013-08-08 12:50:00,
2013-08-08 08:51:00,69.1,65.4,30.15,SE,135,1.2,1.2,88,0.00,CLR,,0.00,WeatherDisplay:10.37,2013-08-08 12:51:00,
2013-08-08 08:52:00,69.1,65.4,30.15,South,180,1.2,2.4,88,0.00,CLR,,0.00,WeatherDisplay:10.37,2013-08-08 12:52:00,
2013-08-08 08:53:00,69.1,65.4,30.15,ESE,112,2.3,2.3,88,0.00,CLR,,0.00,WeatherDisplay:10.37,2013-08-08 12:53:00,
2013-08-08 08:55:00,69.1,65.4,30.14,East,90,2.3,2.3,88,0.00,CLR,,0.00,WeatherDisplay:10.37,2013-08-08 12:55:00,
2013-08-08 08:56:00,69.1,65.4,30.14,East,90,2.3,2.3,88,0.00,CLR,,0.00,WeatherDisplay:10.37,2013-08-08 12:56:00,
2013-08-08 08:57:00,69.1,65.4,30.15,SE,135,2.3,2.6,88,0.00,CLR,,0.00,WeatherDisplay:10.37,2013-08-08 12:57:00,
2013-08-08 08:58:00,69.1,65.4,30.15,South,180,2.3,0.0,88,0.00,CLR,,0.00,WeatherDisplay:10.37,2013-08-08 12:58:00,
2013-08-08 09:00:00,69.1,65.4,30.15,SSE,158,0.0,0.5,88,0.00,CLR,,0.00,WeatherDisplay:10.37,2013-08-08 13:00:00,
2013-08-08 09:01:00,69.1,65.4,30.15,SSE,158,0.0,0.5,88,0.00,CLR,,0.00,WeatherDisplay:10.37,2013-08-08 13:01:00,
2013-08-08 09:02:00,69.1,65.4,30.15,SSE,158,0.0,0.0,88,0.00,CLR,,0.00,WeatherDisplay:10.37,2013-08-08 13:02:00,
2013-08-08 09:03:00,69.1,65.4,30.14,SSE,158,0.0,1.2,88,0.00,CLR,,0.00,WeatherDisplay:10.37,2013-08-08 13:03:00,
2013-08-08 09:04:00,69.1,65.4,30.14,SSE,158,0.0,1.2,88,0.00,CLR,,0.00,WeatherDisplay:10.37,2013-08-08 13:04:00,
2013-08-08 09:06:00,69.1,65.4,30.14,SE,135,1.2,1.2,88,0.00,CLR,,0.00,WeatherDisplay:10.37,2013-08-08 13:06:00,
2013-08-08 09:07:00,69.1,65.4,30.14,SE,135,0.0,0.5,88,0.00,CLR,,0.00,WeatherDisplay:10.37,2013-08-08 13:07:00,
2013-08-08 09:09:00,69.1,65.4,30.15,SE,135,0.0,1.2,88,0.00,CLR,,0.00,WeatherDisplay:10.37,2013-08-08 13:09:00,
2013-08-08 09:11:00,69.1,65.4,30.15,SE,135,1.2,0.0,88,0.00,CLR,,0.00,WeatherDisplay:10.37,2013-08-08 13:11:00,
2013-08-08 09:13:00,69.1,65.4,30.15,SE,135,0.0,0.0,88,0.00,CLR,,0.00,WeatherDisplay:10.37,2013-08-08 13:13:00,
2013-08-08 09:14:00,69.1,65.4,30.16,SE,135,0.0,0.0,88,0.00,CLR,,0.00,WeatherDisplay:10.37,2013-08-08 13:14:00,
2013-08-08 09:16:00,69.3,65.6,30.16,SE,135,1.2,1.6,88,0.00,CLR,,0.00,WeatherDisplay:10.37,2013-08-08 13:16:00,
2013-08-08 09:18:00,69.3,65.6,30.16,SE,135,1.2,1.2,88,0.00,CLR,,0.00,WeatherDisplay:10.37,2013-08-08 13:18:00,
2013-08-08 09:19:00,69.3,65.6,30.16,SE,135,1.2,1.2,88,0.00,CLR,,0.00,WeatherDisplay:10.37,2013-08-08 13:19:00,
2013-08-08 09:20:00,69.3,65.6,30.16,SE,135,1.2,1.2,88,0.00,CLR,,0.00,WeatherDisplay:10.37,2013-08-08 13:20:00,
2013-08-08 09:21:00,69.3,65.6,30.16,SE,135,1.2,1.2,88,0.00,CLR,,0.00,WeatherDisplay:10.37,2013-08-08 13:21:00,
2013-08-08 09:24:00,69.3,65.6,30.17,SE,135,1.2,1.8,88,0.00,CLR,,0.00,WeatherDisplay:10.37,2013-08-08 13:24:00,
2013-08-08 09:25:00,69.3,65.6,30.17,SE,135,2.3,0.0,88,0.00,CLR,,0.00,WeatherDisplay:10.37,2013-08-08 13:25:00,
2013-08-08 09:26:00,69.3,65.6,30.17,SE,135,2.3,0.0,88,0.00,CLR,,0.00,WeatherDisplay:10.37,2013-08-08 13:26:00,
2013-08-08 09:29:00,69.3,65.6,30.17,SE,135,0.0,0.0,88,0.00,CLR,,0.00,WeatherDisplay:10.37,2013-08-08 13:29:00,
2013-08-08 09:30:00,69.3,65.6,30.17,SE,135,0.0,1.2,88,0.00,CLR,,0.00,WeatherDisplay:10.37,2013-08-08 13:30:00,
2013-08-08 09:31:00,69.3,65.6,30.17,SE,135,1.2,1.6,88,0.00,CLR,,0.00,WeatherDisplay:10.37,2013-08-08 13:31:00,
2013-08-08 09:32:00,69.3,65.6,30.17,SE,135,1.2,1.6,88,0.00,CLR,,0.00,WeatherDisplay:10.37,2013-08-08 13:32:00,
2013-08-08 09:34:00,69.3,65.6,30.18,SE,135,1.2,1.2,88,0.00,CLR,,0.00,WeatherDisplay:10.37,2013-08-08 13:34:00,
2013-08-08 09:35:00,69.3,65.6,30.17,ESE,112,0.0,0.5,88,0.00,CLR,,0.00,WeatherDisplay:10.37,2013-08-08 13:35:00,
2013-08-08 09:36:00,69.3,65.6,30.18,ESE,112,0.0,0.5,88,0.00,CLR,,0.00,WeatherDisplay:10.37,2013-08-08 13:36:00,
2013-08-08 09:37:00,69.3,65.6,30.18,ESE,112,0.0,0.5,88,0.00,CLR,,0.00,WeatherDisplay:10.37,2013-08-08 13:37:00,
2013-08-08 09:39:00,69.3,65.6,30.17,SSE,158,1.2,1.2,88,0.00,CLR,,0.00,WeatherDisplay:10.37,2013-08-08 13:39:00,
2013-08-08 09:40:00,69.3,65.6,30.17,SE,135,1.2,0.0,88,0.00,CLR,,0.00,WeatherDisplay:10.37,2013-08-08 13:40:00,
2013-08-08 09:42:00,69.3,65.6,30.18,SE,135,1.2,0.0,88,0.00,CLR,,0.00,WeatherDisplay:10.37,2013-08-08 13:42:00,
2013-08-08 09:44:00,69.3,65.6,30.18,SE,135,0.0,0.7,88,0.00,CLR,,0.00,WeatherDisplay:10.37,2013-08-08 13:44:00,
2013-08-08 09:45:00,69.3,65.6,30.18,SE,135,1.2,1.2,88,0.00,CLR,,0.00,WeatherDisplay:10.37,2013-08-08 13:45:00,
2013-08-08 09:47:00,69.4,65.7,30.18,South,180,1.2,1.2,88,0.00,CLR,,0.00,WeatherDisplay:10.37,2013-08-08 13:47:00,
2013-08-08 09:49:00,69.4,65.7,30.18,ESE,112,2.3,2.3,88,0.00,CLR,,0.00,WeatherDisplay:10.37,2013-08-08 13:49:00,
2013-08-08 09:50:00,69.4,65.7,30.18,ESE,112,2.3,2.3,88,0.00,CLR,,0.00,WeatherDisplay:10.37,2013-08-08 13:50:00,
2013-08-08 09:51:00,69.4,65.7,30.18,SSE,158,2.3,2.3,88,0.00,CLR,,0.00,WeatherDisplay:10.37,2013-08-08 13:51:00,
2013-08-08 09:52:00,69.4,65.7,30.18,East,90,2.3,2.3,88,0.00,CLR,,0.00,WeatherDisplay:10.37,2013-08-08 13:52:00,
2013-08-08 09:55:00,69.4,65.7,30.18,SSE,158,1.2,1.2,88,0.00,CLR,,0.00,WeatherDisplay:10.37,2013-08-08 13:55:00,
2013-08-08 09:56:00,69.6,65.9,30.18,SSE,158,1.2,1.2,88,0.00,CLR,,0.00,WeatherDisplay:10.37,2013-08-08 13:56:00,
2013-08-08 09:57:00,69.6,65.9,30.18,SSE,158,1.2,1.2,88,0.00,CLR,,0.00,WeatherDisplay:10.37,2013-08-08 13:57:00,
2013-08-08 09:58:00,69.6,65.9,30.18,SSE,158,1.2,1.2,88,0.00,CLR,,0.00,WeatherDisplay:10.37,2013-08-08 13:58:00,
2013-08-08 10:00:00,69.6,65.9,30.18,ESE,112,0.0,0.5,88,0.00,CLR,,0.00,WeatherDisplay:10.37,2013-08-08 14:00:00,
2013-08-08 10:01:00,69.6,65.9,30.18,ESE,112,0.0,0.5,88,0.00,CLR,,0.00,WeatherDisplay:10.37,2013-08-08 14:01:00,
2013-08-08 10:02:00,69.6,65.9,30.18,ESE,112,0.0,0.2,88,0.00,CLR,,0.00,WeatherDisplay:10.37,2013-08-08 14:02:00,
2013-08-08 10:03:00,69.6,65.9,30.18,ESE,112,0.0,0.2,88,0.00,CLR,,0.00,WeatherDisplay:10.37,2013-08-08 14:03:00,
2013-08-08 10:05:00,69.6,65.9,30.18,SSE,158,1.2,1.2,88,0.00,CLR,,0.00,WeatherDisplay:10.37,2013-08-08 14:05:00,
2013-08-08 10:06:00,69.6,65.9,30.18,ESE,112,1.2,1.2,88,0.00,CLR,,0.00,WeatherDisplay:10.37,2013-08-08 14:06:00,
2013-08-08 10:08:00,69.8,66.1,30.18,SE,135,1.2,1.2,88,0.00,CLR,,0.00,WeatherDisplay:10.37,2013-08-08 14:08:00,
2013-08-08 10:10:00,69.8,66.1,30.18,SSE,156,1.0,1.0,88,0.00,CLR,CLR,0.00,WeatherDisplay:10.37,2013-08-08 14:10:00,
2013-08-08 10:11:00,70.0,66.3,30.18,SE,135,1.2,1.2,88,0.00,CLR,,0.00,WeatherDisplay:10.37,2013-08-08 14:11:00,
2013-08-08 10:13:00,69.8,66.1,30.18,SE,135,2.3,0.0,88,0.00,CLR,,0.00,WeatherDisplay:10.37,2013-08-08 14:13:00,
2013-08-08 10:14:00,70.0,66.3,30.19,East,90,2.3,2.4,88,0.00,CLR,,0.00,WeatherDisplay:10.37,2013-08-08 14:14:00,
2013-08-08 10:15:00,70.0,66.3,30.18,SSE,158,2.3,2.3,88,0.00,CLR,,0.00,WeatherDisplay:10.37,2013-08-08 14:15:00,
2013-08-08 10:16:00,70.0,66.6,30.19,SE,135,2.3,2.3,89,0.00,CLR,,0.00,WeatherDisplay:10.37,2013-08-08 14:16:00,
2013-08-08 10:18:00,70.0,66.6,30.19,SE,135,1.2,1.4,89,0.00,CLR,,0.00,WeatherDisplay:10.37,2013-08-08 14:18:00,
2013-08-08 10:19:00,70.0,66.6,30.18,SE,135,1.2,1.4,89,0.00,CLR,,0.00,WeatherDisplay:10.37,2013-08-08 14:19:00,
2013-08-08 10:20:00,70.0,66.6,30.18,SE,135,1.2,1.4,89,0.00,CLR,,0.00,WeatherDisplay:10.37,2013-08-08 14:20:00,
2013-08-08 10:21:00,70.3,66.9,30.18,East,90,1.2,3.3,89,0.00,CLR,,0.00,WeatherDisplay:10.37,2013-08-08 14:21:00,
2013-08-08 10:22:00,70.2,66.8,30.18,South,180,3.5,3.5,89,0.00,CLR,,0.00,WeatherDisplay:10.37,2013-08-08 14:22:00,
2013-08-08 10:23:00,70.3,66.9,30.18,WSW,248,3.5,3.5,89,0.00,CLR,,0.00,WeatherDisplay:10.37,2013-08-08 14:23:00,
2013-08-08 10:24:00,70.3,66.9,30.18,South,180,1.2,1.2,89,0.00,CLR,,0.00,WeatherDisplay:10.37,2013-08-08 14:24:00,
2013-08-08 10:25:00,70.3,66.9,30.18,SW,225,1.2,1.2,89,0.00,CLR,,0.00,WeatherDisplay:10.37,2013-08-08 14:25:00,
2013-08-08 10:26:00,70.5,67.1,30.18,SSE,158,2.3,2.3,89,0.00,CLR,,0.00,WeatherDisplay:10.37,2013-08-08 14:26:00,
2013-08-08 10:27:00,70.5,67.1,30.18,SE,135,2.3,2.6,89,0.00,CLR,,0.00,WeatherDisplay:10.37,2013-08-08 14:27:00,
2013-08-08 10:28:00,70.5,67.1,30.18,SE,135,2.3,2.3,89,0.00,CLR,,0.00,WeatherDisplay:10.37,2013-08-08 14:28:00,
2013-08-08 10:29:00,70.7,67.3,30.18,SSE,158,2.3,2.3,89,0.00,CLR,,0.00,WeatherDisplay:10.37,2013-08-08 14:29:00,
2013-08-08 10:30:00,70.7,67.3,30.18,NE,45,2.3,2.3,89,0.00,CLR,,0.00,WeatherDisplay:10.37,2013-08-08 14:30:00,
2013-08-08 10:32:00,70.7,67.3,30.18,SSW,202,1.2,1.2,89,0.00,CLR,,0.00,WeatherDisplay:10.37,2013-08-08 14:32:00,
2013-08-08 10:33:00,70.7,67.3,30.18,East,90,1.2,2.4,89,0.00,CLR,,0.00,WeatherDisplay:10.37,2013-08-08 14:33:00,
2013-08-08 10:34:00,70.7,67.3,30.18,South,180,2.3,2.6,89,0.00,CLR,,0.00,WeatherDisplay:10.37,2013-08-08 14:34:00,
2013-08-08 10:35:00,70.9,67.5,30.18,SE,135,2.3,2.3,89,0.00,CLR,,0.00,WeatherDisplay:10.37,2013-08-08 14:35:00,
2013-08-08 10:37:00,70.9,67.5,30.18,SSE,158,2.3,2.3,89,0.00,CLR,,0.00,WeatherDisplay:10.37,2013-08-08 14:37:00,
2013-08-08 10:38:00,70.9,67.5,30.18,SSE,158,2.3,2.3,89,0.00,CLR,,0.00,WeatherDisplay:10.37,2013-08-08 14:38:00,
2013-08-08 10:40:00,70.9,67.5,30.18,ESE,112,1.2,1.6,89,0.00,CLR,,0.00,WeatherDisplay:10.37,2013-08-08 14:40:00,
2013-08-08 10:42:00,70.9,67.1,30.18,East,90,3.5,3.5,88,0.00,CLR,,0.00,WeatherDisplay:10.37,2013-08-08 14:42:00,
2013-08-08 10:43:00,70.9,67.1,30.18,SSW,202,3.5,3.5,88,0.00,CLR,,0.00,WeatherDisplay:10.37,2013-08-08 14:43:00,
2013-08-08 10:44:00,71.1,67.3,30.18,South,180,2.3,2.3,88,0.00,CLR,,0.00,WeatherDisplay:10.37,2013-08-08 14:44:00,
2013-08-08 10:45:00,71.1,67.3,30.18,SSW,202,2.3,2.3,88,0.00,CLR,,0.00,WeatherDisplay:10.37,2013-08-08 14:45:00,
2013-08-08 10:46:00,71.1,67.3,30.18,WSW,248,2.3,2.3,88,0.00,CLR,,0.00,WeatherDisplay:10.37,2013-08-08 14:46:00,
2013-08-08 10:47:00,71.1,67.3,30.18,WSW,248,1.2,1.2,88,0.00,CLR,,0.00,WeatherDisplay:10.37,2013-08-08 14:47:00,
2013-08-08 10:49:00,71.1,67.3,30.17,SW,225,1.2,1.2,88,0.00,CLR,,0.00,WeatherDisplay:10.37,2013-08-08 14:49:00,
2013-08-08 10:51:00,71.2,67.5,30.17,SSE,158,2.3,2.3,88,0.00,CLR,,0.00,WeatherDisplay:10.37,2013-08-08 14:51:00,
2013-08-08 10:52:00,71.2,67.5,30.17,SE,135,2.3,2.4,88,0.00,CLR,,0.00,WeatherDisplay:10.37,2013-08-08 14:52:00,
2013-08-08 10:54:00,71.2,67.5,30.17,SE,135,2.3,2.3,88,0.00,CLR,,0.00,WeatherDisplay:10.37,2013-08-08 14:54:00,
2013-08-08 10:55:00,71.4,67.7,30.17,SSE,158,2.3,2.3,88,0.00,CLR,,0.00,WeatherDisplay:10.37,2013-08-08 14:55:00,
2013-08-08 10:56:00,71.4,67.7,30.16,SE,135,2.3,2.3,88,0.00,CLR,,0.00,WeatherDisplay:10.37,2013-08-08 14:56:00,
2013-08-08 10:57:00,71.4,67.7,30.16,WSW,248,2.3,2.3,88,0.00,CLR,,0.00,WeatherDisplay:10.37,2013-08-08 14:57:00,
2013-08-08 10:58:00,71.4,67.7,30.15,ESE,112,2.3,2.4,88,0.00,CLR,,0.00,WeatherDisplay:10.37,2013-08-08 14:58:00,
2013-08-08 10:59:00,71.4,67.7,30.15,South,180,2.3,2.3,88,0.00,CLR,,0.00,WeatherDisplay:10.37,2013-08-08 14:59:00,
2013-08-08 11:00:00,71.4,67.7,30.15,SE,135,2.3,2.3,88,0.00,CLR,,0.00,WeatherDisplay:10.37,2013-08-08 15:00:00,
2013-08-08 11:01:00,71.6,67.9,30.14,South,180,3.5,3.5,88,0.00,CLR,,0.00,WeatherDisplay:10.37,2013-08-08 15:01:00,
2013-08-08 11:02:00,71.6,67.9,30.15,SE,135,3.5,3.5,88,0.00,CLR,,0.00,WeatherDisplay:10.37,2013-08-08 15:02:00,
2013-08-08 11:03:00,71.6,67.9,30.14,SE,135,3.5,3.5,88,0.00,CLR,,0.00,WeatherDisplay:10.37,2013-08-08 15:03:00,
2013-08-08 11:04:00,71.6,67.9,30.14,SE,135,2.3,2.3,88,0.00,CLR,,0.00,WeatherDisplay:10.37,2013-08-08 15:04:00,
2013-08-08 11:05:00,71.8,68.0,30.14,ESE,112,1.2,1.6,88,0.00,CLR,,0.00,WeatherDisplay:10.37,2013-08-08 15:05:00,
2013-08-08 11:06:00,71.8,68.0,30.14,SE,135,2.3,2.3,88,0.00,CLR,,0.00,WeatherDisplay:10.37,2013-08-08 15:06:00,
2013-08-08 11:07:00,71.8,68.0,30.14,SE,135,2.3,2.3,88,0.00,CLR,,0.00,WeatherDisplay:10.37,2013-08-08 15:07:00,
2013-08-08 11:08:00,72.0,68.2,30.14,SE,135,2.3,2.3,88,0.00,CLR,,0.00,WeatherDisplay:10.37,2013-08-08 15:08:00,
2013-08-08 11:09:00,72.0,68.2,30.14,South,180,2.3,2.3,88,0.00,CLR,,0.00,WeatherDisplay:10.37,2013-08-08 15:09:00,
2013-08-08 11:10:00,72.1,68.4,30.14,SSE,158,2.3,2.3,88,0.00,CLR,,0.00,WeatherDisplay:10.37,2013-08-08 15:10:00,
2013-08-08 11:12:00,72.1,68.7,30.13,NE,45,2.3,2.3,89,0.00,CLR,,0.00,WeatherDisplay:10.37,2013-08-08 15:12:00,
2013-08-08 11:13:00,72.1,68.7,30.14,SSE,158,2.3,2.3,89,0.00,CLR,,0.00,WeatherDisplay:10.37,2013-08-08 15:13:00,
2013-08-08 11:14:00,72.1,68.7,30.13,SSW,202,2.3,2.3,89,0.00,CLR,,0.00,WeatherDisplay:10.37,2013-08-08 15:14:00,
2013-08-08 11:15:00,72.3,68.9,30.13,ESE,112,2.3,2.3,89,0.00,CLR,,0.00,WeatherDisplay:10.37,2013-08-08 15:15:00,
2013-08-08 11:17:00,72.3,68.9,30.13,ESE,112,1.2,1.2,89,0.00,CLR,,0.00,WeatherDisplay:10.37,2013-08-08 15:17:00,
2013-08-08 11:18:00,72.5,69.1,30.13,ESE,112,1.2,1.2,89,0.00,CLR,,0.00,WeatherDisplay:10.37,2013-08-08 15:18:00,
2013-08-08 11:20:00,72.5,69.1,30.13,SE,135,1.2,1.2,89,0.00,CLR,,0.00,WeatherDisplay:10.37,2013-08-08 15:20:00,
2013-08-08 11:21:00,72.5,69.1,30.13,SE,135,1.2,1.2,89,0.00,CLR,,0.00,WeatherDisplay:10.37,2013-08-08 15:21:00,
2013-08-08 11:23:00,72.7,69.2,30.13,South,180,1.2,1.2,89,0.00,CLR,,0.00,WeatherDisplay:10.37,2013-08-08 15:23:00,
2013-08-08 11:24:00,72.9,69.4,30.13,SSE,158,1.2,1.2,89,0.00,CLR,,0.00,WeatherDisplay:10.37,2013-08-08 15:24:00,
2013-08-08 11:25:00,72.8,69.4,30.13,SSE,151,1.0,1.0,89,0.00,CLR,CLR,0.00,WeatherDisplay:10.37,2013-08-08 15:25:00,
2013-08-08 11:26:00,72.9,69.4,30.13,ESE,112,1.2,1.2,89,0.00,CLR,,0.00,WeatherDisplay:10.37,2013-08-08 15:26:00,
2013-08-08 11:28:00,73.0,69.6,30.12,SSE,158,2.3,2.3,89,0.00,CLR,,0.00,WeatherDisplay:10.37,2013-08-08 15:28:00,
2013-08-08 11:30:00,73.0,69.6,30.12,SSE,158,2.3,2.4,89,0.00,CLR,,0.00,WeatherDisplay:10.37,2013-08-08 15:30:00,
2013-08-08 11:31:00,73.2,69.8,30.12,SSW,202,2.3,2.3,89,0.00,CLR,,0.00,WeatherDisplay:10.37,2013-08-08 15:31:00,
2013-08-08 11:33:00,73.2,69.5,30.12,SSW,202,0.0,0.2,88,0.00,CLR,,0.00,WeatherDisplay:10.37,2013-08-08 15:33:00,
2013-08-08 11:35:00,73.2,69.5,30.12,SSW,202,0.0,0.2,88,0.00,CLR,,0.00,WeatherDisplay:10.37,2013-08-08 15:35:00,
2013-08-08 11:36:00,73.4,69.6,30.12,NE,45,0.0,1.2,88,0.00,CLR,,0.00,WeatherDisplay:10.37,2013-08-08 15:36:00,
2013-08-08 11:38:00,73.6,69.8,30.12,South,180,4.6,4.6,88,0.00,CLR,,0.00,WeatherDisplay:10.37,2013-08-08 15:38:00,
2013-08-08 11:39:00,73.6,69.8,30.12,SSE,158,4.6,4.6,88,0.00,CLR,,0.00,WeatherDisplay:10.37,2013-08-08 15:39:00,
2013-08-08 11:40:00,73.6,69.8,30.12,South,180,4.6,4.6,88,0.00,CLR,,0.00,WeatherDisplay:10.37,2013-08-08 15:40:00,
2013-08-08 11:41:00,73.6,69.8,30.12,South,180,4.6,4.6,88,0.00,CLR,,0.00,WeatherDisplay:10.37,2013-08-08 15:41:00,
2013-08-08 11:43:00,73.8,69.6,30.12,SSE,158,1.2,2.0,87,0.00,CLR,,0.00,WeatherDisplay:10.37,2013-08-08 15:43:00,
2013-08-08 11:44:00,73.8,69.6,30.11,South,180,2.3,2.3,87,0.00,CLR,,0.00,WeatherDisplay:10.37,2013-08-08 15:44:00,
2013-08-08 11:46:00,73.8,69.6,30.11,NNE,22,2.3,2.3,87,0.00,CLR,,0.00,WeatherDisplay:10.37,2013-08-08 15:46:00,
2013-08-08 11:48:00,73.9,69.8,30.11,SE,135,2.3,2.3,87,0.00,CLR,,0.00,WeatherDisplay:10.37,2013-08-08 15:48:00,
2013-08-08 11:49:00,73.9,69.8,30.12,SE,135,2.3,2.3,87,0.00,CLR,,0.00,WeatherDisplay:10.37,2013-08-08 15:49:00,
2013-08-08 11:51:00,73.9,69.8,30.11,South,180,1.2,2.9,87,0.00,CLR,,0.00,WeatherDisplay:10.37,2013-08-08 15:51:00,
2013-08-08 11:52:00,73.9,69.8,30.12,SSE,158,2.3,2.3,87,0.00,CLR,,0.00,WeatherDisplay:10.37,2013-08-08 15:52:00,
2013-08-08 11:53:00,73.9,69.8,30.12,SSE,158,4.6,4.7,87,0.00,CLR,,0.00,WeatherDisplay:10.37,2013-08-08 15:53:00,
2013-08-08 11:54:00,73.9,69.5,30.12,SSE,158,4.6,4.6,86,0.00,CLR,,0.00,WeatherDisplay:10.37,2013-08-08 15:54:00,
2013-08-08 11:56:00,73.9,69.5,30.12,SSE,158,4.6,4.6,86,0.00,CLR,,0.00,WeatherDisplay:10.37,2013-08-08 15:56:00,
2013-08-08 11:57:00,73.9,69.5,30.12,SSE,158,4.6,4.6,86,0.00,CLR,,0.00,WeatherDisplay:10.37,2013-08-08 15:57:00,
2013-08-08 11:59:00,73.9,69.5,30.12,SE,135,1.2,1.2,86,0.00,CLR,,0.00,WeatherDisplay:10.37,2013-08-08 15:59:00,
2013-08-08 12:00:00,73.9,69.5,30.12,SSE,158,1.2,1.8,86,0.00,CLR,,0.00,WeatherDisplay:10.37,2013-08-08 16:00:00,
2013-08-08 12:01:00,73.9,69.5,30.12,SSE,158,2.3,2.3,86,0.00,CLR,,0.00,WeatherDisplay:10.37,2013-08-08 16:01:00,
2013-08-08 12:02:00,73.9,69.5,30.12,SE,135,2.3,4.7,86,0.00,CLR,,0.00,WeatherDisplay:10.37,2013-08-08 16:02:00,
2013-08-08 12:03:00,73.9,69.5,30.12,ESE,112,4.6,4.6,86,0.00,CLR,,0.00,WeatherDisplay:10.37,2013-08-08 16:03:00,
2013-08-08 12:04:00,73.9,69.1,30.12,South,180,4.6,4.6,85,0.00,CLR,,0.00,WeatherDisplay:10.37,2013-08-08 16:04:00,
2013-08-08 12:05:00,73.9,69.1,30.12,SSE,158,3.5,3.5,85,0.00,CLR,,0.00,WeatherDisplay:10.37,2013-08-08 16:05:00,
2013-08-08 12:06:00,73.9,69.1,30.12,South,180,3.5,3.5,85,0.00,CLR,,0.00,WeatherDisplay:10.37,2013-08-08 16:06:00,
2013-08-08 12:07:00,73.9,69.1,30.12,ESE,112,3.5,3.5,85,0.00,CLR,,0.00,WeatherDisplay:10.37,2013-08-08 16:07:00,
2013-08-08 12:08:00,73.9,69.1,30.12,ESE,112,4.6,5.2,85,0.00,CLR,,0.00,WeatherDisplay:10.37,2013-08-08 16:08:00,
2013-08-08 12:09:00,73.9,69.1,30.12,WNW,292,4.6,4.6,85,0.00,CLR,,0.00,WeatherDisplay:10.37,2013-08-08 16:09:00,
2013-08-08 12:10:00,73.9,69.1,30.12,South,180,4.6,4.6,85,0.00,CLR,,0.00,WeatherDisplay:10.37,2013-08-08 16:10:00,
2013-08-08 12:11:00,73.9,69.1,30.12,SE,135,4.6,4.6,85,0.00,CLR,,0.00,WeatherDisplay:10.37,2013-08-08 16:11:00,
2013-08-08 12:12:00,73.9,69.1,30.12,SSE,158,4.6,4.6,85,0.00,CLR,,0.00,WeatherDisplay:10.37,2013-08-08 16:12:00,
2013-08-08 12:13:00,73.9,69.1,30.12,SSE,158,4.6,4.6,85,0.00,CLR,,0.00,WeatherDisplay:10.37,2013-08-08 16:13:00,
2013-08-08 12:15:00,73.9,69.5,30.12,SSE,165,1.0,5.0,86,0.00,CLR,CLR,0.00,WeatherDisplay:10.37,2013-08-08 16:15:00,
2013-08-08 12:16:00,73.9,69.5,30.11,SE,135,2.3,2.3,86,0.00,CLR,,0.00,WeatherDisplay:10.37,2013-08-08 16:16:00,
2013-08-08 12:18:00,74.1,69.7,30.11,SSW,202,2.3,2.3,86,0.00,CLR,,0.00,WeatherDisplay:10.37,2013-08-08 16:18:00,
2013-08-08 12:20:00,74.1,69.7,30.11,South,180,1.2,1.2,86,0.00,CLR,,0.00,WeatherDisplay:10.37,2013-08-08 16:20:00,
2013-08-08 12:21:00,74.3,69.8,30.11,SW,225,1.2,1.2,86,0.00,CLR,,0.00,WeatherDisplay:10.37,2013-08-08 16:21:00,
2013-08-08 12:23:00,74.3,69.8,30.11,East,90,2.3,2.3,86,0.00,CLR,,0.00,WeatherDisplay:10.37,2013-08-08 16:23:00,
2013-08-08 12:25:00,74.5,69.7,30.11,SE,135,2.3,2.3,85,0.00,CLR,,0.00,WeatherDisplay:10.37,2013-08-08 16:25:00,
2013-08-08 12:26:00,74.5,69.7,30.11,SE,135,2.3,2.3,85,0.00,CLR,,0.00,WeatherDisplay:10.37,2013-08-08 16:26:00,
2013-08-08 12:28:00,74.7,69.8,30.11,South,180,2.3,2.3,85,0.00,CLR,,0.00,WeatherDisplay:10.37,2013-08-08 16:28:00,
2013-08-08 12:29:00,74.7,69.8,30.11,South,180,2.3,2.3,85,0.00,CLR,,0.00,WeatherDisplay:10.37,2013-08-08 16:29:00,
2013-08-08 12:30:00,74.8,70.0,30.11,SSE,158,4.6,4.6,85,0.00,CLR,,0.00,WeatherDisplay:10.37,2013-08-08 16:30:00,
2013-08-08 12:31:00,74.8,70.0,30.11,SSE,158,4.6,4.6,85,0.00,CLR,,0.00,WeatherDisplay:10.37,2013-08-08 16:31:00,
2013-08-08 12:32:00,74.8,70.0,30.11,East,90,4.6,4.6,85,0.00,CLR,,0.00,WeatherDisplay:10.37,2013-08-08 16:32:00,
2013-08-08 12:34:00,75.0,70.2,30.12,SSE,158,4.6,4.6,85,0.00,CLR,,0.00,WeatherDisplay:10.37,2013-08-08 16:34:00,
2013-08-08 12:35:00,75.0,70.2,30.12,SSE,158,4.6,4.6,85,0.00,CLR,,0.00,WeatherDisplay:10.37,2013-08-08 16:35:00,
2013-08-08 12:36:00,75.0,70.2,30.12,ESE,112,4.6,4.6,85,0.00,CLR,,0.00,WeatherDisplay:10.37,2013-08-08 16:36:00,
2013-08-08 12:37:00,75.0,70.2,30.12,SSE,158,4.6,4.6,85,0.00,CLR,,0.00,WeatherDisplay:10.37,2013-08-08 16:37:00,
2013-08-08 12:39:00,75.2,70.4,30.12,ESE,112,2.3,5.9,85,0.00,CLR,,0.00,WeatherDisplay:10.37,2013-08-08 16:39:00,
2013-08-08 12:40:00,75.2,70.4,30.12,ESE,112,5.8,5.9,85,0.00,CLR,,0.00,WeatherDisplay:10.37,2013-08-08 16:40:00,
2013-08-08 12:41:00,75.2,70.4,30.12,SSE,158,5.8,5.8,85,0.00,CLR,,0.00,WeatherDisplay:10.37,2013-08-08 16:41:00,
2013-08-08 12:42:00,75.2,70.4,30.12,South,180,5.8,5.8,85,0.00,CLR,,0.00,WeatherDisplay:10.37,2013-08-08 16:42:00,
2013-08-08 12:44:00,75.2,70.0,30.12,NNE,22,3.5,3.5,84,0.00,CLR,,0.00,WeatherDisplay:10.37,2013-08-08 16:44:00,
2013-08-08 12:46:00,75.4,70.2,30.12,ESE,112,2.3,2.4,84,0.00,CLR,,0.00,WeatherDisplay:10.37,2013-08-08 16:46:00,
2013-08-08 12:48:00,75.4,70.2,30.12,SSW,202,2.3,2.3,84,0.00,CLR,,0.00,WeatherDisplay:10.37,2013-08-08 16:48:00,
2013-08-08 12:50:00,75.4,70.2,30.12,SSE,158,2.3,2.3,84,0.00,CLR,,0.00,WeatherDisplay:10.37,2013-08-08 16:50:00,
2013-08-08 12:51:00,75.4,70.2,30.12,South,180,2.3,2.3,84,0.00,CLR,,0.00,WeatherDisplay:10.37,2013-08-08 16:51:00,
2013-08-08 12:53:00,75.4,70.2,30.12,SE,135,1.2,1.8,84,0.00,CLR,,0.00,WeatherDisplay:10.37,2013-08-08 16:53:00,
2013-08-08 12:55:00,75.4,70.2,30.12,SSE,150,1.0,2.0,84,0.00,CLR,CLR,0.00,WeatherDisplay:10.37,2013-08-08 16:55:00,
2013-08-08 12:56:00,75.6,70.4,30.12,South,180,2.3,4.5,84,0.00,CLR,,0.00,WeatherDisplay:10.37,2013-08-08 16:56:00,
2013-08-08 12:58:00,75.6,70.4,30.12,SE,135,4.6,4.6,84,0.00,CLR,,0.00,WeatherDisplay:10.37,2013-08-08 16:58:00,
2013-08-08 13:00:00,75.6,70.4,30.12,SSE,151,2.0,5.0,84,0.00,CLR,CLR,0.00,WeatherDisplay:10.37,2013-08-08 17:00:00,
2013-08-08 13:01:00,75.6,70.0,30.12,WNW,292,2.3,2.3,83,0.00,CLR,,0.00,WeatherDisplay:10.37,2013-08-08 17:01:00,
2013-08-08 13:02:00,75.6,70.0,30.12,SE,135,2.3,2.3,83,0.00,CLR,,0.00,WeatherDisplay:10.37,2013-08-08 17:02:00,
2013-08-08 13:03:00,75.6,70.0,30.12,SSE,158,2.3,2.4,83,0.00,CLR,,0.00,WeatherDisplay:10.37,2013-08-08 17:03:00,
2013-08-08 13:05:00,75.6,70.0,30.12,SSE,158,2.3,2.9,83,0.00,CLR,,0.00,WeatherDisplay:10.37,2013-08-08 17:05:00,
2013-08-08 13:06:00,75.6,70.0,30.12,SSE,158,2.3,2.3,83,0.00,CLR,,0.00,WeatherDisplay:10.37,2013-08-08 17:06:00,
2013-08-08 13:07:00,75.7,70.2,30.12,SSE,158,2.3,2.3,83,0.00,CLR,,0.00,WeatherDisplay:10.37,2013-08-08 17:07:00,
2013-08-08 13:09:00,75.7,70.2,30.12,South,180,1.2,1.2,83,0.00,CLR,,0.00,WeatherDisplay:10.37,2013-08-08 17:09:00,
2013-08-08 13:10:00,75.9,70.4,30.12,SSE,158,1.2,1.6,83,0.00,CLR,,0.00,WeatherDisplay:10.37,2013-08-08 17:10:00,
2013-08-08 13:11:00,76.1,70.6,30.12,SSE,158,2.3,2.3,83,0.00,CLR,,0.00,WeatherDisplay:10.37,2013-08-08 17:11:00,
2013-08-08 13:12:00,76.1,70.6,30.12,South,180,2.3,2.3,83,0.00,CLR,,0.00,WeatherDisplay:10.37,2013-08-08 17:12:00,
2013-08-08 13:14:00,76.1,70.6,30.12,South,180,5.8,5.8,83,0.00,CLR,,0.00,WeatherDisplay:10.37,2013-08-08 17:14:00,
2013-08-08 13:15:00,76.3,70.4,30.11,SSW,202,5.8,5.8,82,0.00,CLR,,0.00,WeatherDisplay:10.37,2013-08-08 17:15:00,
2013-08-08 13:16:00,76.3,70.4,30.11,South,180,2.3,3.3,82,0.00,CLR,,0.00,WeatherDisplay:10.37,2013-08-08 17:16:00,
2013-08-08 13:17:00,76.3,70.4,30.11,South,180,2.3,3.3,82,0.00,CLR,,0.00,WeatherDisplay:10.37,2013-08-08 17:17:00,
2013-08-08 13:19:00,76.5,70.6,30.11,SSE,158,3.5,3.5,82,0.00,CLR,,0.00,WeatherDisplay:10.37,2013-08-08 17:19:00,
2013-08-08 13:20:00,76.6,70.7,30.11,South,180,3.5,4.0,82,0.00,CLR,,0.00,WeatherDisplay:10.37,2013-08-08 17:20:00,
2013-08-08 13:21:00,76.6,70.7,30.11,SSE,158,4.6,4.6,82,0.00,CLR,,0.00,WeatherDisplay:10.37,2013-08-08 17:21:00,
2013-08-08 13:22:00,76.6,70.7,30.11,SSE,158,4.6,4.6,82,0.00,CLR,,0.00,WeatherDisplay:10.37,2013-08-08 17:22:00,
2013-08-08 13:23:00,76.6,70.7,30.11,South,180,4.6,4.6,82,0.00,CLR,,0.00,WeatherDisplay:10.37,2013-08-08 17:23:00,
2013-08-08 13:24:00,76.8,70.9,30.11,SSE,158,2.3,2.3,82,0.00,CLR,,0.00,WeatherDisplay:10.37,2013-08-08 17:24:00,
2013-08-08 13:26:00,76.8,70.9,30.11,SSE,158,2.3,2.3,82,0.00,CLR,,0.00,WeatherDisplay:10.37,2013-08-08 17:26:00,
2013-08-08 13:27:00,76.8,70.9,30.11,South,180,2.3,2.3,82,0.00,CLR,,0.00,WeatherDisplay:10.37,2013-08-08 17:27:00,
2013-08-08 13:28:00,76.8,70.9,30.11,SSE,158,2.3,2.6,82,0.00,CLR,,0.00,WeatherDisplay:10.37,2013-08-08 17:28:00,
2013-08-08 13:30:00,77.2,71.3,30.11,ESE,112,2.3,2.3,82,0.00,CLR,,0.00,WeatherDisplay:10.37,2013-08-08 17:30:00,
2013-08-08 13:31:00,77.2,71.3,30.11,ESE,112,1.2,1.2,82,0.00,CLR,,0.00,WeatherDisplay:10.37,2013-08-08 17:31:00,
2013-08-08 13:32:00,77.2,71.3,30.11,SSE,158,1.2,1.2,82,0.00,CLR,,0.00,WeatherDisplay:10.37,2013-08-08 17:32:00,
2013-08-08 13:33:00,77.4,71.1,30.11,SE,135,2.3,2.3,81,0.00,CLR,,0.00,WeatherDisplay:10.37,2013-08-08 17:33:00,
2013-08-08 13:35:00,77.5,71.2,30.11,SE,135,2.3,2.3,81,0.00,CLR,,0.00,WeatherDisplay:10.37,2013-08-08 17:35:00,
2013-08-08 13:36:00,77.5,71.2,30.11,SE,135,2.3,2.3,81,0.00,CLR,,0.00,WeatherDisplay:10.37,2013-08-08 17:36:00,
2013-08-08 13:37:00,77.5,71.2,30.11,SE,135,2.3,2.3,81,0.00,CLR,,0.00,WeatherDisplay:10.37,2013-08-08 17:37:00,
2013-08-08 13:38:00,77.5,71.2,30.11,SSE,158,2.3,2.3,81,0.00,CLR,,0.00,WeatherDisplay:10.37,2013-08-08 17:38:00,
2013-08-08 13:41:00,77.7,71.1,30.12,SE,135,3.5,3.5,80,0.00,CLR,,0.00,WeatherDisplay:10.37,2013-08-08 17:41:00,
2013-08-08 13:42:00,77.9,70.9,30.12,SSE,158,3.5,3.5,79,0.00,CLR,,0.00,WeatherDisplay:10.37,2013-08-08 17:42:00,
2013-08-08 13:43:00,77.9,70.9,30.12,SSE,158,3.5,3.5,79,0.00,CLR,,0.00,WeatherDisplay:10.37,2013-08-08 17:43:00,
2013-08-08 13:44:00,77.9,70.9,30.12,SE,135,3.5,3.6,79,0.00,CLR,,0.00,WeatherDisplay:10.37,2013-08-08 17:44:00,
2013-08-08 13:46:00,77.9,70.9,30.12,SW,225,4.6,4.6,79,0.00,CLR,,0.00,WeatherDisplay:10.37,2013-08-08 17:46:00,
2013-08-08 13:48:00,78.1,71.0,30.12,East,90,4.6,4.6,79,0.00,CLR,,0.00,WeatherDisplay:10.37,2013-08-08 17:48:00,
2013-08-08 13:49:00,78.1,71.0,30.12,South,180,2.3,2.3,79,0.00,CLR,,0.00,WeatherDisplay:10.37,2013-08-08 17:49:00,
2013-08-08 13:52:00,78.3,70.8,30.12,SE,135,3.5,3.5,78,0.00,CLR,,0.00,WeatherDisplay:10.37,2013-08-08 17:52:00,
2013-08-08 13:53:00,78.1,70.7,30.11,South,180,3.5,4.7,78,0.00,CLR,,0.00,WeatherDisplay:10.37,2013-08-08 17:53:00,
2013-08-08 13:54:00,78.3,70.8,30.12,South,180,4.6,4.6,78,0.00,CLR,,0.00,WeatherDisplay:10.37,2013-08-08 17:54:00,
2013-08-08 13:57:00,78.3,70.8,30.11,South,180,5.8,5.8,78,0.00,CLR,,0.00,WeatherDisplay:10.37,2013-08-08 17:57:00,
2013-08-08 13:58:00,78.3,70.8,30.11,South,180,5.8,5.8,78,0.00,CLR,,0.00,WeatherDisplay:10.37,2013-08-08 17:58:00,
2013-08-08 13:59:00,78.3,70.5,30.11,NNW,338,5.8,5.8,77,0.00,CLR,,0.00,WeatherDisplay:10.37,2013-08-08 17:59:00,
2013-08-08 14:02:00,78.3,70.8,30.11,SSE,158,4.6,4.6,78,0.00,CLR,,0.00,WeatherDisplay:10.37,2013-08-08 18:02:00,
2013-08-08 14:03:00,78.3,70.8,30.11,SSE,158,4.6,4.6,78,0.00,CLR,,0.00,WeatherDisplay:10.37,2013-08-08 18:03:00,
2013-08-08 14:04:00,78.4,71.0,30.11,SSE,158,4.6,6.7,78,0.00,CLR,,0.00,WeatherDisplay:10.37,2013-08-08 18:04:00,
2013-08-08 14:08:00,78.4,70.6,30.12,SE,135,6.9,6.9,77,0.00,CLR,,0.00,WeatherDisplay:10.37,2013-08-08 18:08:00,
2013-08-08 14:09:00,78.4,70.6,30.11,SSE,158,6.9,6.9,77,0.00,CLR,,0.00,WeatherDisplay:10.37,2013-08-08 18:09:00,
2013-08-08 14:10:00,78.4,70.6,30.11,SSE,158,6.9,6.9,77,0.00,CLR,,0.00,WeatherDisplay:10.37,2013-08-08 18:10:00,
2013-08-08 14:13:00,78.6,70.8,30.11,SSE,158,9.2,9.7,77,0.00,CLR,,0.00,WeatherDisplay:10.37,2013-08-08 18:13:00,
2013-08-08 14:14:00,78.6,70.8,30.12,SSE,158,9.2,9.2,77,0.00,CLR,,0.00,WeatherDisplay:10.37,2013-08-08 18:14:00,
2013-08-08 14:15:00,78.6,70.8,30.12,SSE,158,9.2,9.2,77,0.00,CLR,,0.00,WeatherDisplay:10.37,2013-08-08 18:15:00,
2013-08-08 14:19:00,78.6,70.8,30.12,South,180,3.5,3.5,77,0.00,CLR,,0.00,WeatherDisplay:10.37,2013-08-08 18:19:00,
2013-08-08 14:20:00,78.8,71.0,30.11,NNW,338,1.2,2.6,77,0.00,CLR,,0.00,WeatherDisplay:10.37,2013-08-08 18:20:00,
2013-08-08 14:24:00,79.0,70.4,30.11,South,180,3.5,3.5,75,0.00,CLR,,0.00,WeatherDisplay:10.37,2013-08-08 18:24:00,
2013-08-08 14:25:00,79.0,70.4,30.11,South,180,3.5,3.5,75,0.00,CLR,,0.00,WeatherDisplay:10.37,2013-08-08 18:25:00,
2013-08-08 14:29:00,79.3,71.1,30.12,ESE,112,2.3,2.4,76,0.00,CLR,,0.00,WeatherDisplay:10.37,2013-08-08 18:29:00,
2013-08-08 14:30:00,79.3,71.1,30.12,ESE,112,2.3,2.4,76,0.00,CLR,,0.00,WeatherDisplay:10.37,2013-08-08 18:30:00,
2013-08-08 14:35:00,79.5,71.3,30.12,South,180,2.3,2.3,76,0.00,CLR,,0.00,WeatherDisplay:10.37,2013-08-08 18:35:00,
2013-08-08 14:36:00,79.5,71.3,30.13,South,180,1.2,1.2,76,0.00,CLR,,0.00,WeatherDisplay:10.37,2013-08-08 18:36:00,
2013-08-08 14:40:00,79.5,71.3,30.13,SE,142,3.0,3.0,76,0.00,CLR,CLR,0.00,WeatherDisplay:10.37,2013-08-08 18:40:00,
2013-08-08 14:41:00,79.5,71.3,30.13,SSE,158,3.5,3.5,76,0.00,CLR,,0.00,WeatherDisplay:10.37,2013-08-08 18:41:00,
2013-08-08 14:45:00,80.1,71.0,30.14,East,90,2.4,2.4,74,0.00,CLR,,0.00,WeatherDisplay:10.37,2013-08-08 18:45:00,
2013-08-08 14:46:00,80.1,71.0,30.14,East,90,2.3,2.4,74,0.00,CLR,,0.00,WeatherDisplay:10.37,2013-08-08 18:46:00,
2013-08-08 14:50:00,80.1,71.0,30.14,SSE,158,3.5,3.5,74,0.00,CLR,,0.00,WeatherDisplay:10.37,2013-08-08 18:50:00,
2013-08-08 14:51:00,80.1,71.0,30.14,SSE,158,3.5,3.5,74,0.00,CLR,,0.00,WeatherDisplay:10.37,2013-08-08 18:51:00,
2013-08-08 14:52:00,80.1,71.0,30.13,SSE,158,3.5,3.5,74,0.00,CLR,,0.00,WeatherDisplay:10.37,2013-08-08 18:52:00,
2013-08-08 14:55:00,80.1,71.0,30.13,ENE,68,2.3,2.3,74,0.00,CLR,,0.00,WeatherDisplay:10.37,2013-08-08 18:55:00,
2013-08-08 14:56:00,80.1,71.0,30.13,ENE,68,2.3,2.3,74,0.00,CLR,,0.00,WeatherDisplay:10.37,2013-08-08 18:56:00,
2013-08-08 14:57:00,80.1,71.0,30.13,SE,135,2.3,2.3,74,0.00,CLR,,0.00,WeatherDisplay:10.37,2013-08-08 18:57:00,
2013-08-08 15:01:00,79.9,70.8,30.13,South,180,3.5,3.5,74,0.00,CLR,,0.00,WeatherDisplay:10.37,2013-08-08 19:01:00,
2013-08-08 15:02:00,79.9,70.8,30.13,SE,135,4.0,4.0,74,0.00,CLR,,0.00,WeatherDisplay:10.37,2013-08-08 19:02:00,
2013-08-08 15:06:00,79.9,70.8,30.13,ENE,68,3.5,3.5,74,0.00,CLR,,0.00,WeatherDisplay:10.37,2013-08-08 19:06:00,
2013-08-08 15:08:00,79.9,70.4,30.13,SSW,202,2.3,2.3,73,0.00,CLR,,0.00,WeatherDisplay:10.37,2013-08-08 19:08:00,
2013-08-08 15:11:00,79.7,70.7,30.14,SE,135,2.3,2.4,74,0.00,CLR,,0.00,WeatherDisplay:10.37,2013-08-08 19:11:00,
2013-08-08 15:12:00,79.7,70.7,30.14,South,180,2.3,2.3,74,0.00,CLR,,0.00,WeatherDisplay:10.37,2013-08-08 19:12:00,
2013-08-08 15:13:00,79.7,70.7,30.13,ESE,112,2.3,2.3,74,0.00,CLR,,0.00,WeatherDisplay:10.37,2013-08-08 19:13:00,
2013-08-08 15:17:00,79.7,70.7,30.14,ENE,68,1.2,2.4,74,0.00,CLR,,0.00,WeatherDisplay:10.37,2013-08-08 19:17:00,
2013-08-08 15:18:00,79.5,70.5,30.13,SSE,158,2.3,4.3,74,0.00,CLR,,0.00,WeatherDisplay:10.37,2013-08-08 19:18:00,
2013-08-08 15:19:00,79.5,70.5,30.13,SSE,158,2.3,4.3,74,0.00,CLR,,0.00,WeatherDisplay:10.37,2013-08-08 19:19:00,
2013-08-08 15:22:00,79.3,70.3,30.13,SE,135,4.6,4.6,74,0.00,CLR,,0.00,WeatherDisplay:10.37,2013-08-08 19:22:00,
2013-08-08 15:24:00,79.5,70.5,30.13,SW,225,3.5,3.5,74,0.00,CLR,,0.00,WeatherDisplay:10.37,2013-08-08 19:24:00,
2013-08-08 15:27:00,79.3,70.3,30.13,SSE,158,1.2,1.2,74,0.00,CLR,,0.00,WeatherDisplay:10.37,2013-08-08 19:27:00,
2013-08-08 15:28:00,79.3,70.3,30.12,NW,315,1.2,1.2,74,0.00,CLR,,0.00,WeatherDisplay:10.37,2013-08-08 19:28:00,
2013-08-08 15:29:00,79.3,70.3,30.12,South,180,1.2,1.2,74,0.00,CLR,,0.00,WeatherDisplay:10.37,2013-08-08 19:29:00,
2013-08-08 15:32:00,79.3,70.7,30.12,SW,225,3.5,0.0,75,0.00,CLR,,0.00,WeatherDisplay:10.37,2013-08-08 19:32:00,
2013-08-08 15:33:00,79.2,70.5,30.12,SSE,158,1.2,3.1,75,0.00,CLR,,0.00,WeatherDisplay:10.37,2013-08-08 19:33:00,
2013-08-08 15:34:00,79.2,70.5,30.12,SSE,158,3.5,3.5,75,0.00,CLR,,0.00,WeatherDisplay:10.37,2013-08-08 19:34:00,
2013-08-08 15:37:00,79.3,70.7,30.13,SE,135,4.6,4.6,75,0.00,CLR,,0.00,WeatherDisplay:10.37,2013-08-08 19:37:00,
2013-08-08 15:38:00,79.3,70.7,30.13,ENE,68,4.6,4.6,75,0.00,CLR,,0.00,WeatherDisplay:10.37,2013-08-08 19:38:00,
2013-08-08 15:39:00,79.3,70.7,30.13,SE,135,3.5,3.5,75,0.00,CLR,,0.00,WeatherDisplay:10.37,2013-08-08 19:39:00,
2013-08-08 15:40:00,79.3,70.7,30.13,SE,135,3.5,3.5,75,0.00,CLR,,0.00,WeatherDisplay:10.37,2013-08-08 19:40:00,
2013-08-08 15:42:00,79.3,70.7,30.13,South,180,2.3,2.3,75,0.00,CLR,,0.00,WeatherDisplay:10.37,2013-08-08 19:42:00,
2013-08-08 15:43:00,79.3,70.7,30.13,ESE,112,2.3,2.3,75,0.00,CLR,,0.00,WeatherDisplay:10.37,2013-08-08 19:43:00,
2013-08-08 15:45:00,79.3,70.7,30.12,ESE,112,2.3,2.3,75,0.00,CLR,,0.00,WeatherDisplay:10.37,2013-08-08 19:45:00,
2013-08-08 15:47:00,79.3,70.7,30.13,SE,135,3.5,3.5,75,0.00,CLR,,0.00,WeatherDisplay:10.37,2013-08-08 19:47:00,
2013-08-08 15:48:00,79.3,70.7,30.12,SSE,158,3.5,3.5,75,0.00,CLR,,0.00,WeatherDisplay:10.37,2013-08-08 19:48:00,
2013-08-08 15:49:00,79.3,70.7,30.13,South,180,2.3,2.3,75,0.00,CLR,,0.00,WeatherDisplay:10.37,2013-08-08 19:49:00,
2013-08-08 15:50:00,79.3,70.7,30.13,South,180,2.3,2.3,75,0.00,CLR,,0.00,WeatherDisplay:10.37,2013-08-08 19:50:00,
2013-08-08 15:53:00,79.2,70.5,30.13,SSE,158,1.2,1.2,75,0.00,CLR,,0.00,WeatherDisplay:10.37,2013-08-08 19:53:00,
2013-08-08 15:55:00,79.3,70.7,30.14,SSE,158,1.2,1.8,75,0.00,CLR,,0.00,WeatherDisplay:10.37,2013-08-08 19:55:00,
2013-08-08 15:56:00,79.3,70.7,30.13,ESE,112,2.3,2.3,75,0.00,CLR,,0.00,WeatherDisplay:10.37,2013-08-08 19:56:00,
2013-08-08 15:57:00,79.3,70.7,30.14,East,90,2.3,4.3,75,0.00,CLR,,0.00,WeatherDisplay:10.37,2013-08-08 19:57:00,
2013-08-08 15:58:00,79.3,70.7,30.14,East,90,2.3,4.3,75,0.00,CLR,,0.00,WeatherDisplay:10.37,2013-08-08 19:58:00,
2013-08-08 15:59:00,79.3,70.7,30.13,NNE,22,4.6,4.6,75,0.00,CLR,,0.00,WeatherDisplay:10.37,2013-08-08 19:59:00,
2013-08-08 16:00:00,79.3,70.7,30.13,South,180,4.6,4.6,75,0.00,CLR,,0.00,WeatherDisplay:10.37,2013-08-08 20:00:00,
2013-08-08 16:02:00,79.2,70.5,30.13,SSE,158,2.3,2.3,75,0.00,CLR,,0.00,WeatherDisplay:10.37,2013-08-08 20:02:00,
2013-08-08 16:03:00,79.2,70.5,30.12,South,180,1.2,1.2,75,0.00,CLR,,0.00,WeatherDisplay:10.37,2013-08-08 20:03:00,
2013-08-08 16:04:00,79.2,70.5,30.13,NE,45,1.2,1.2,75,0.00,CLR,,0.00,WeatherDisplay:10.37,2013-08-08 20:04:00,
2013-08-08 16:05:00,79.0,70.4,30.13,South,180,1.2,1.2,75,0.00,CLR,,0.00,WeatherDisplay:10.37,2013-08-08 20:05:00,
2013-08-08 16:07:00,79.0,70.4,30.13,SSE,158,1.2,1.2,75,0.00,CLR,,0.00,WeatherDisplay:10.37,2013-08-08 20:07:00,
2013-08-08 16:08:00,79.0,70.4,30.13,SSE,158,1.2,1.2,75,0.00,CLR,,0.00,WeatherDisplay:10.37,2013-08-08 20:08:00,
2013-08-08 16:09:00,79.0,70.4,30.13,SE,135,1.2,3.3,75,0.00,CLR,,0.00,WeatherDisplay:10.37,2013-08-08 20:09:00,
2013-08-08 16:11:00,79.0,70.4,30.13,SE,135,3.5,3.5,75,0.00,CLR,,0.00,WeatherDisplay:10.37,2013-08-08 20:11:00,
2013-08-08 16:12:00,79.0,70.4,30.12,West,270,2.3,2.3,75,0.00,CLR,,0.00,WeatherDisplay:10.37,2013-08-08 20:12:00,
2013-08-08 16:13:00,79.0,70.4,30.12,West,270,2.3,2.3,75,0.00,CLR,,0.00,WeatherDisplay:10.37,2013-08-08 20:13:00,
2013-08-08 16:14:00,79.0,70.4,30.14,South,180,1.2,1.2,75,0.00,CLR,,0.00,WeatherDisplay:10.37,2013-08-08 20:14:00,
2013-08-08 16:16:00,79.0,70.4,30.13,South,180,4.6,4.6,75,0.00,CLR,,0.00,WeatherDisplay:10.37,2013-08-08 20:16:00,
2013-08-08 16:17:00,78.8,70.2,30.13,SE,135,4.6,4.6,75,0.00,CLR,,0.00,WeatherDisplay:10.37,2013-08-08 20:17:00,
2013-08-08 16:18:00,78.8,70.2,30.13,SE,135,4.6,4.6,75,0.00,CLR,,0.00,WeatherDisplay:10.37,2013-08-08 20:18:00,
2013-08-08 16:19:00,78.8,70.2,30.13,SSE,158,2.3,2.3,75,0.00,CLR,,0.00,WeatherDisplay:10.37,2013-08-08 20:19:00,
2013-08-08 16:20:00,78.8,70.2,30.13,SE,135,2.3,2.3,75,0.00,CLR,,0.00,WeatherDisplay:10.37,2013-08-08 20:20:00,
2013-08-08 16:21:00,78.8,70.2,30.13,SE,135,2.3,2.3,75,0.00,CLR,,0.00,WeatherDisplay:10.37,2013-08-08 20:21:00,
2013-08-08 16:22:00,78.8,70.2,30.13,SSE,158,2.3,2.3,75,0.00,CLR,,0.00,WeatherDisplay:10.37,2013-08-08 20:22:00,
2013-08-08 16:23:00,78.8,70.2,30.13,SSE,158,2.3,2.3,75,0.00,CLR,,0.00,WeatherDisplay:10.37,2013-08-08 20:23:00,
2013-08-08 16:24:00,78.8,70.2,30.13,SW,225,3.5,3.5,75,0.00,CLR,,0.00,WeatherDisplay:10.37,2013-08-08 20:24:00,
2013-08-08 16:25:00,78.6,70.0,30.12,SSE,158,3.5,3.5,75,0.00,CLR,,0.00,WeatherDisplay:10.37,2013-08-08 20:25:00,
2013-08-08 16:26:00,78.6,70.0,30.12,SSE,158,3.5,3.5,75,0.00,CLR,,0.00,WeatherDisplay:10.37,2013-08-08 20:26:00,
2013-08-08 16:27:00,78.6,70.0,30.12,SSE,158,2.3,2.3,75,0.00,CLR,,0.00,WeatherDisplay:10.37,2013-08-08 20:27:00,
2013-08-08 16:28:00,78.6,70.0,30.12,SSE,158,2.3,2.3,75,0.00,CLR,,0.00,WeatherDisplay:10.37,2013-08-08 20:28:00,
2013-08-08 16:29:00,78.8,70.6,30.13,SSE,158,2.3,2.3,76,0.00,CLR,,0.00,WeatherDisplay:10.37,2013-08-08 20:29:00,
2013-08-08 16:30:00,78.8,70.6,30.13,SSE,158,2.3,2.3,76,0.00,CLR,,0.00,WeatherDisplay:10.37,2013-08-08 20:30:00,
2013-08-08 16:31:00,78.8,70.6,30.13,SSW,202,2.3,2.3,76,0.00,CLR,,0.00,WeatherDisplay:10.37,2013-08-08 20:31:00,
2013-08-08 16:33:00,78.8,70.6,30.13,SE,135,2.3,2.3,76,0.00,CLR,,0.00,WeatherDisplay:10.37,2013-08-08 20:33:00,
2013-08-08 16:34:00,78.6,70.4,30.13,SSW,202,2.3,0.0,76,0.00,CLR,,0.00,WeatherDisplay:10.37,2013-08-08 20:34:00,
2013-08-08 16:35:00,78.6,70.4,30.13,SSW,202,2.3,0.0,76,0.00,CLR,,0.00,WeatherDisplay:10.37,2013-08-08 20:35:00,
2013-08-08 16:36:00,78.8,70.6,30.13,ESE,112,2.3,2.3,76,0.00,CLR,,0.00,WeatherDisplay:10.37,2013-08-08 20:36:00,
2013-08-08 16:38:00,78.6,70.4,30.13,SSE,158,2.3,2.9,76,0.00,CLR,,0.00,WeatherDisplay:10.37,2013-08-08 20:38:00,
2013-08-08 16:40:00,78.6,70.4,30.14,South,180,2.3,3.8,76,0.00,CLR,,0.00,WeatherDisplay:10.37,2013-08-08 20:40:00,
2013-08-08 16:42:00,78.8,70.6,30.14,South,180,3.5,3.5,76,0.00,CLR,,0.00,WeatherDisplay:10.37,2013-08-08 20:42:00,
2013-08-08 16:43:00,78.8,70.6,30.14,SSW,202,3.5,3.5,76,0.00,CLR,,0.00,WeatherDisplay:10.37,2013-08-08 20:43:00,
2013-08-08 16:45:00,78.6,70.4,30.14,SSE,158,2.3,2.3,76,0.00,CLR,,0.00,WeatherDisplay:10.37,2013-08-08 20:45:00,
2013-08-08 16:46:00,78.8,70.6,30.14,SSE,158,2.3,3.6,76,0.00,CLR,,0.00,WeatherDisplay:10.37,2013-08-08 20:46:00,
2013-08-08 16:47:00,78.6,70.4,30.14,SSE,158,4.6,4.6,76,0.00,CLR,,0.00,WeatherDisplay:10.37,2013-08-08 20:47:00,
2013-08-08 16:48:00,78.8,70.6,30.13,South,180,4.6,4.6,76,0.00,CLR,,0.00,WeatherDisplay:10.37,2013-08-08 20:48:00,
2013-08-08 16:50:00,78.8,70.6,30.13,South,180,2.3,2.3,76,0.00,CLR,,0.00,WeatherDisplay:10.37,2013-08-08 20:50:00,
2013-08-08 16:51:00,78.8,70.6,30.13,South,180,2.3,2.3,76,0.00,CLR,,0.00,WeatherDisplay:10.37,2013-08-08 20:51:00,
2013-08-08 16:53:00,78.8,70.6,30.14,WNW,292,2.3,2.3,76,0.00,CLR,,0.00,WeatherDisplay:10.37,2013-08-08 20:53:00,
2013-08-08 16:54:00,78.8,70.6,30.13,SSE,158,2.3,2.3,76,0.00,CLR,,0.00,WeatherDisplay:10.37,2013-08-08 20:54:00,
2013-08-08 16:55:00,78.8,70.6,30.14,SE,135,2.4,2.4,76,0.00,CLR,,0.00,WeatherDisplay:10.37,2013-08-08 20:55:00,
2013-08-08 16:56:00,78.8,70.6,30.14,SE,135,2.3,2.4,76,0.00,CLR,,0.00,WeatherDisplay:10.37,2013-08-08 20:56:00,
2013-08-08 16:58:00,78.8,70.6,30.14,SSW,202,2.3,0.0,76,0.00,CLR,,0.00,WeatherDisplay:10.37,2013-08-08 20:58:00,
2013-08-08 16:59:00,78.8,70.6,30.14,East,90,2.3,2.3,76,0.00,CLR,,0.00,WeatherDisplay:10.37,2013-08-08 20:59:00,
2013-08-08 17:01:00,78.8,70.6,30.14,SSW,202,1.2,1.2,76,0.00,CLR,,0.00,WeatherDisplay:10.37,2013-08-08 21:01:00,
2013-08-08 17:03:00,78.8,70.6,30.14,SE,135,1.2,1.4,76,0.00,CLR,,0.00,WeatherDisplay:10.37,2013-08-08 21:03:00,
2013-08-08 17:04:00,78.8,70.6,30.14,East,90,1.2,2.4,76,0.00,CLR,,0.00,WeatherDisplay:10.37,2013-08-08 21:04:00,
2013-08-08 17:06:00,79.0,70.8,30.14,SSE,158,3.5,3.5,76,0.00,CLR,,0.00,WeatherDisplay:10.37,2013-08-08 21:06:00,
2013-08-08 17:07:00,79.0,70.8,30.14,SSE,158,3.5,3.5,76,0.00,CLR,,0.00,WeatherDisplay:10.37,2013-08-08 21:07:00,
2013-08-08 17:08:00,79.0,70.8,30.14,SE,135,2.3,2.3,76,0.00,CLR,,0.00,WeatherDisplay:10.37,2013-08-08 21:08:00,
2013-08-08 17:09:00,79.0,71.2,30.14,South,180,2.3,2.3,77,0.00,CLR,,0.00,WeatherDisplay:10.37,2013-08-08 21:09:00,
2013-08-08 17:12:00,79.2,71.3,30.14,SSE,158,2.3,2.3,77,0.00,CLR,,0.00,WeatherDisplay:10.37,2013-08-08 21:12:00,
2013-08-08 17:14:00,79.2,71.3,30.13,South,180,2.3,2.3,77,0.00,CLR,,0.00,WeatherDisplay:10.37,2013-08-08 21:14:00,
2013-08-08 17:17:00,79.3,71.5,30.14,SSW,202,2.3,0.0,77,0.00,CLR,,0.00,WeatherDisplay:10.37,2013-08-08 21:17:00,
2013-08-08 17:18:00,79.3,71.5,30.14,SSW,202,2.3,0.0,77,0.00,CLR,,0.00,WeatherDisplay:10.37,2013-08-08 21:18:00,
2013-08-08 17:20:00,79.3,71.5,30.14,SSE,158,2.3,2.3,77,0.00,CLR,,0.00,WeatherDisplay:10.37,2013-08-08 21:20:00,
2013-08-08 17:22:00,79.3,71.1,30.14,SW,225,2.3,2.3,76,0.00,CLR,,0.00,WeatherDisplay:10.37,2013-08-08 21:22:00,
2013-08-08 17:23:00,79.3,71.1,30.14,SSE,158,2.3,2.3,76,0.00,CLR,,0.00,WeatherDisplay:10.37,2013-08-08 21:23:00,
2013-08-08 17:25:00,79.3,71.1,30.14,SE,135,2.3,2.3,76,0.00,CLR,,0.00,WeatherDisplay:10.37,2013-08-08 21:25:00,
2013-08-08 17:28:00,79.2,70.9,30.14,SE,135,2.3,3.3,76,0.00,CLR,,0.00,WeatherDisplay:10.37,2013-08-08 21:28:00,
2013-08-08 17:29:00,79.2,70.9,30.14,SE,135,3.5,3.8,76,0.00,CLR,,0.00,WeatherDisplay:10.37,2013-08-08 21:29:00,
2013-08-08 17:30:00,79.2,70.9,30.14,SE,135,3.5,3.8,76,0.00,CLR,,0.00,WeatherDisplay:10.37,2013-08-08 21:30:00,
2013-08-08 17:31:00,79.2,70.9,30.14,SSE,158,3.5,3.5,76,0.00,CLR,,0.00,WeatherDisplay:10.37,2013-08-08 21:31:00,
2013-08-08 17:36:00,79.2,70.9,30.14,South,180,2.3,0.0,76,0.00,CLR,,0.00,WeatherDisplay:10.37,2013-08-08 21:36:00,
2013-08-08 17:41:00,79.3,71.1,30.14,ESE,112,5.8,5.8,76,0.00,CLR,,0.00,WeatherDisplay:10.37,2013-08-08 21:41:00,
2013-08-08 17:42:00,79.3,71.1,30.15,SE,135,5.8,5.8,76,0.00,CLR,,0.00,WeatherDisplay:10.37,2013-08-08 21:42:00,
2013-08-08 17:46:00,79.3,71.1,30.14,SSE,158,2.3,2.3,76,0.00,CLR,,0.00,WeatherDisplay:10.37,2013-08-08 21:46:00,
2013-08-08 17:47:00,79.3,71.1,30.14,ESE,112,1.2,1.6,76,0.00,CLR,,0.00,WeatherDisplay:10.37,2013-08-08 21:47:00,
2013-08-08 17:48:00,79.3,71.1,30.14,SE,135,1.2,0.0,76,0.00,CLR,,0.00,WeatherDisplay:10.37,2013-08-08 21:48:00,
2013-08-08 17:51:00,79.3,71.1,30.14,SE,135,0.0,0.2,76,0.00,CLR,,0.00,WeatherDisplay:10.37,2013-08-08 21:51:00,
2013-08-08 17:52:00,79.3,71.1,30.14,SE,135,0.0,0.7,76,0.00,CLR,,0.00,WeatherDisplay:10.37,2013-08-08 21:52:00,
2013-08-08 17:53:00,79.3,71.1,30.14,SE,135,1.2,1.2,76,0.00,CLR,,0.00,WeatherDisplay:10.37,2013-08-08 21:53:00,
2013-08-08 17:58:00,79.3,71.1,30.14,SSE,158,2.3,3.1,76,0.00,CLR,,0.00,WeatherDisplay:10.37,2013-08-08 21:58:00,
2013-08-08 18:00:00,79.3,71.1,30.14,SSE,158,3.5,3.5,76,0.00,CLR,,0.00,WeatherDisplay:10.37,2013-08-08 22:00:00,
2013-08-08 18:04:00,79.2,70.9,30.14,East,90,2.3,2.3,76,0.00,CLR,,0.00,WeatherDisplay:10.37,2013-08-08 22:04:00,
2013-08-08 18:07:00,79.2,70.9,30.14,South,180,1.2,1.2,76,0.00,CLR,,0.00,WeatherDisplay:10.37,2013-08-08 22:07:00,
2013-08-08 18:09:00,79.0,70.8,30.14,ENE,68,2.3,2.3,76,0.00,CLR,,0.00,WeatherDisplay:10.37,2013-08-08 22:09:00,
2013-08-08 18:10:00,79.0,70.8,30.14,South,180,2.3,2.3,76,0.00,CLR,,0.00,WeatherDisplay:10.37,2013-08-08 22:10:00,
2013-08-08 18:14:00,78.8,70.6,30.14,ESE,112,2.3,4.0,76,0.00,CLR,,0.00,WeatherDisplay:10.37,2013-08-08 22:14:00,
2013-08-08 18:15:00,78.8,70.6,30.14,SE,139,2.0,5.0,76,0.00,CLR,CLR,0.00,WeatherDisplay:10.37,2013-08-08 22:15:00,
2013-08-08 18:20:00,78.6,70.4,30.13,SSE,158,6.9,6.9,76,0.00,CLR,,0.00,WeatherDisplay:10.37,2013-08-08 22:20:00,
2013-08-08 18:21:00,78.4,70.2,30.13,ESE,112,4.9,4.9,76,0.00,CLR,,0.00,WeatherDisplay:10.37,2013-08-08 22:21:00,
2013-08-08 18:25:00,78.3,70.1,30.13,South,180,4.6,6.2,76,0.00,CLR,,0.00,WeatherDisplay:10.37,2013-08-08 22:25:00,
2013-08-08 18:26:00,78.1,70.3,30.13,South,180,5.8,5.8,77,0.00,CLR,,0.00,WeatherDisplay:10.37,2013-08-08 22:26:00,
2013-08-08 18:27:00,78.1,70.3,30.13,ESE,112,5.8,5.8,77,0.00,CLR,,0.00,WeatherDisplay:10.37,2013-08-08 22:27:00,
2013-08-08 18:30:00,77.9,70.1,30.12,East,90,3.5,3.8,77,0.00,CLR,,0.00,WeatherDisplay:10.37,2013-08-08 22:30:00,
2013-08-08 18:31:00,77.9,70.1,30.13,SSE,158,4.6,4.7,77,0.00,CLR,,0.00,WeatherDisplay:10.37,2013-08-08 22:31:00,
2013-08-08 18:32:00,77.9,70.1,30.12,SSE,158,4.6,4.6,77,0.00,CLR,,0.00,WeatherDisplay:10.37,2013-08-08 22:32:00,
2013-08-08 18:36:00,77.7,70.3,30.12,South,180,2.3,2.3,78,0.00,CLR,,0.00,WeatherDisplay:10.37,2013-08-08 22:36:00,
2013-08-08 18:37:00,77.7,70.3,30.12,SE,135,2.3,2.3,78,0.00,CLR,,0.00,WeatherDisplay:10.37,2013-08-08 22:37:00,
2013-08-08 18:38:00,77.7,70.3,30.12,East,90,2.3,2.3,78,0.00,CLR,,0.00,WeatherDisplay:10.37,2013-08-08 22:38:00,
2013-08-08 18:41:00,77.5,70.1,30.12,SSE,158,4.6,4.7,78,0.00,CLR,,0.00,WeatherDisplay:10.37,2013-08-08 22:41:00,
2013-08-08 18:42:00,77.5,70.1,30.12,South,180,4.6,4.6,78,0.00,CLR,,0.00,WeatherDisplay:10.37,2013-08-08 22:42:00,
2013-08-08 18:43:00,77.5,70.1,30.12,SE,135,4.6,4.6,78,0.00,CLR,,0.00,WeatherDisplay:10.37,2013-08-08 22:43:00,
2013-08-08 18:46:00,77.4,70.0,30.12,SSE,158,3.5,3.5,78,0.00,CLR,,0.00,WeatherDisplay:10.37,2013-08-08 22:46:00,
2013-08-08 18:47:00,77.4,70.0,30.12,SSE,158,1.2,1.2,78,0.00,CLR,,0.00,WeatherDisplay:10.37,2013-08-08 22:47:00,
2013-08-08 18:48:00,77.4,70.0,30.12,South,180,1.2,1.2,78,0.00,CLR,,0.00,WeatherDisplay:10.37,2013-08-08 22:48:00,
2013-08-08 18:52:00,77.2,69.8,30.12,WNW,292,3.5,3.5,78,0.00,CLR,,0.00,WeatherDisplay:10.37,2013-08-08 22:52:00,
2013-08-08 18:53:00,77.2,69.8,30.12,WNW,292,2.3,2.3,78,0.00,CLR,,0.00,WeatherDisplay:10.37,2013-08-08 22:53:00,
2013-08-08 18:54:00,77.2,69.8,30.13,SE,135,1.2,1.6,78,0.00,CLR,,0.00,WeatherDisplay:10.37,2013-08-08 22:54:00,
2013-08-08 18:57:00,77.2,69.8,30.13,SE,135,3.5,3.5,78,0.00,CLR,,0.00,WeatherDisplay:10.37,2013-08-08 22:57:00,
2013-08-08 18:58:00,77.2,69.8,30.13,East,90,3.5,3.5,78,0.00,CLR,,0.00,WeatherDisplay:10.37,2013-08-08 22:58:00,
2013-08-08 18:59:00,77.2,69.8,30.13,East,90,3.5,3.5,78,0.00,CLR,,0.00,WeatherDisplay:10.37,2013-08-08 22:59:00,
2013-08-08 19:02:00,77.0,69.6,30.13,South,180,0.0,0.5,78,0.00,CLR,,0.00,WeatherDisplay:10.37,2013-08-08 23:02:00,
2013-08-08 19:04:00,76.8,69.4,30.13,SE,135,0.0,0.5,78,0.00,CLR,,0.00,WeatherDisplay:10.37,2013-08-08 23:04:00,
2013-08-08 19:08:00,76.8,69.8,30.14,WSW,248,0.0,0.5,79,0.00,CLR,,0.00,WeatherDisplay:10.37,2013-08-08 23:08:00,
2013-08-08 19:09:00,76.8,69.4,30.14,South,180,0.0,0.5,78,0.00,CLR,,0.00,WeatherDisplay:10.37,2013-08-08 23:09:00,
2013-08-08 19:10:00,76.8,69.4,30.14,South,180,0.0,0.0,78,0.00,CLR,,0.00,WeatherDisplay:10.37,2013-08-08 23:10:00,
2013-08-08 19:13:00,76.8,69.8,30.14,ESE,112,4.6,4.6,79,0.00,CLR,,0.00,WeatherDisplay:10.37,2013-08-08 23:13:00,
2013-08-08 19:14:00,76.8,69.8,30.14,East,90,4.6,4.6,79,0.00,CLR,,0.00,WeatherDisplay:10.37,2013-08-08 23:14:00,
2013-08-08 19:15:00,76.8,69.8,30.14,East,90,4.6,4.6,79,0.00,CLR,,0.00,WeatherDisplay:10.37,2013-08-08 23:15:00,
2013-08-08 19:16:00,76.8,69.8,30.14,South,180,4.6,4.6,79,0.00,CLR,,0.00,WeatherDisplay:10.37,2013-08-08 23:16:00,
2013-08-08 19:19:00,76.8,69.8,30.14,SSE,158,2.3,2.3,79,0.00,CLR,,0.00,WeatherDisplay:10.37,2013-08-08 23:19:00,
2013-08-08 19:21:00,76.6,69.6,30.14,South,180,1.2,2.0,79,0.00,CLR,,0.00,WeatherDisplay:10.37,2013-08-08 23:21:00,
2013-08-08 19:24:00,76.5,69.5,30.14,SSE,158,4.6,4.6,79,0.00,CLR,,0.00,WeatherDisplay:10.37,2013-08-08 23:24:00,
2013-08-08 19:26:00,76.5,69.5,30.13,WSW,248,1.2,0.0,79,0.00,CLR,,0.00,WeatherDisplay:10.37,2013-08-08 23:26:00,
2013-08-08 19:27:00,76.5,69.5,30.13,NE,45,1.2,2.6,79,0.00,CLR,,0.00,WeatherDisplay:10.37,2013-08-08 23:27:00,
2013-08-08 19:30:00,76.5,69.5,30.13,East,90,2.3,2.3,79,0.00,CLR,,0.00,WeatherDisplay:10.37,2013-08-08 23:30:00,
2013-08-08 19:31:00,76.5,69.5,30.13,East,90,2.3,2.3,79,0.00,CLR,,0.00,WeatherDisplay:10.37,2013-08-08 23:31:00,
2013-08-08 19:32:00,76.5,69.5,30.13,East,90,2.3,2.3,79,0.00,CLR,,0.00,WeatherDisplay:10.37,2013-08-08 23:32:00,
2013-08-08 19:37:00,76.3,69.3,30.14,South,180,1.2,1.2,79,0.00,CLR,,0.00,WeatherDisplay:10.37,2013-08-08 23:37:00,
2013-08-08 19:42:00,76.3,69.3,30.14,SSE,158,1.2,0.0,79,0.00,CLR,,0.00,WeatherDisplay:10.37,2013-08-08 23:42:00,
2013-08-08 19:44:00,76.3,69.7,30.14,SE,135,0.0,0.7,80,0.00,CLR,,0.00,WeatherDisplay:10.37,2013-08-08 23:44:00,
2013-08-08 19:47:00,76.1,69.5,30.14,SE,135,1.2,1.2,80,0.00,CLR,,0.00,WeatherDisplay:10.37,2013-08-08 23:47:00,
2013-08-08 19:49:00,76.1,69.5,30.14,SSW,202,1.2,1.2,80,0.00,CLR,,0.00,WeatherDisplay:10.37,2013-08-08 23:49:00,
2013-08-08 19:50:00,76.1,69.5,30.14,SSW,202,1.2,1.2,80,0.00,CLR,,0.00,WeatherDisplay:10.37,2013-08-08 23:50:00,
2013-08-08 19:51:00,76.1,69.5,30.14,SSW,202,0.0,0.0,80,0.00,CLR,,0.00,WeatherDisplay:10.37,2013-08-08 23:51:00,
2013-08-08 19:53:00,76.1,69.5,30.14,SSW,202,0.0,0.0,80,0.00,CLR,,0.00,WeatherDisplay:10.37,2013-08-08 23:53:00,
2013-08-08 19:54:00,76.1,69.5,30.14,SSW,202,0.0,0.0,80,0.00,CLR,,0.00,WeatherDisplay:10.37,2013-08-08 23:54:00,
2013-08-08 19:55:00,76.1,69.5,30.14,SSW,202,0.0,0.0,80,0.00,CLR,,0.00,WeatherDisplay:10.37,2013-08-08 23:55:00,
2013-08-08 19:57:00,76.1,69.5,30.14,SSW,202,0.0,0.2,80,0.00,CLR,,0.00,WeatherDisplay:10.37,2013-08-08 23:57:00,
2013-08-08 19:59:00,76.1,69.5,30.14,SE,135,2.3,2.3,80,0.00,CLR,,0.00,WeatherDisplay:10.37,2013-08-08 23:59:00,
2013-08-08 20:00:00,75.9,69.3,30.15,SSE,158,2.3,2.3,80,0.00,CLR,,0.00,WeatherDisplay:10.37,2013-08-09 00:00:00,
2013-08-08 20:01:00,75.9,69.3,30.15,SSE,158,2.3,2.3,80,0.00,CLR,,0.00,WeatherDisplay:10.37,2013-08-09 00:01:00,
2013-08-08 20:02:00,75.9,69.3,30.15,SSE,158,2.3,2.3,80,0.00,CLR,,0.00,WeatherDisplay:10.37,2013-08-09 00:02:00,
2013-08-08 20:06:00,75.7,69.1,30.16,East,90,1.2,1.2,80,0.00,CLR,,0.00,WeatherDisplay:10.37,2013-08-09 00:06:00,
2013-08-08 20:07:00,75.7,69.1,30.16,SSE,158,1.2,2.0,80,0.00,CLR,,0.00,WeatherDisplay:10.37,2013-08-09 00:07:00,
2013-08-08 20:08:00,75.7,69.1,30.16,SE,135,2.3,2.3,80,0.00,CLR,,0.00,WeatherDisplay:10.37,2013-08-09 00:08:00,
2013-08-08 20:12:00,75.7,69.5,30.16,ESE,112,1.2,1.2,81,0.00,CLR,,0.00,WeatherDisplay:10.37,2013-08-09 00:12:00,
2013-08-08 20:13:00,75.7,69.5,30.17,SE,135,1.2,1.2,81,0.00,CLR,,0.00,WeatherDisplay:10.37,2013-08-09 00:13:00,
2013-08-08 20:17:00,75.6,69.3,30.17,SSE,158,1.2,1.2,81,0.00,CLR,,0.00,WeatherDisplay:10.37,2013-08-09 00:17:00,
2013-08-08 20:19:00,75.6,69.3,30.17,SSE,158,2.3,0.0,81,0.00,CLR,,0.00,WeatherDisplay:10.37,2013-08-09 00:19:00,
2013-08-08 20:22:00,75.4,69.1,30.17,SSE,158,1.2,1.6,81,0.00,CLR,,0.00,WeatherDisplay:10.37,2013-08-09 00:22:00,
2013-08-08 20:24:00,75.4,69.1,30.18,SSE,158,3.3,3.3,81,0.00,CLR,,0.00,WeatherDisplay:10.37,2013-08-09 00:24:00,
2013-08-08 20:28:00,75.4,69.1,30.19,SSE,158,2.3,2.3,81,0.00,CLR,,0.00,WeatherDisplay:10.37,2013-08-09 00:28:00,
2013-08-08 20:30:00,75.4,69.1,30.19,SE,135,2.3,2.3,81,0.00,CLR,,0.00,WeatherDisplay:10.37,2013-08-09 00:30:00,
2013-08-08 20:34:00,75.2,69.0,30.19,SSE,158,1.2,1.6,81,0.00,CLR,,0.00,WeatherDisplay:10.37,2013-08-09 00:34:00,
2013-08-08 20:35:00,75.2,69.0,30.19,SSE,158,1.2,1.6,81,0.00,CLR,,0.00,WeatherDisplay:10.37,2013-08-09 00:35:00,
2013-08-08 20:40:00,75.1,68.8,30.19,SSE,163,1.0,1.0,81,0.00,CLR,CLR,0.00,WeatherDisplay:10.37,2013-08-09 00:40:00,
2013-08-08 20:45:00,75.0,68.8,30.20,South,180,1.2,1.2,81,0.00,CLR,,0.00,WeatherDisplay:10.37,2013-08-09 00:45:00,
2013-08-08 20:46:00,75.0,68.8,30.20,SSE,158,1.2,1.2,81,0.00,CLR,,0.00,WeatherDisplay:10.37,2013-08-09 00:46:00,
2013-08-08 20:48:00,75.0,68.8,30.21,South,180,1.2,1.6,81,0.00,CLR,,0.00,WeatherDisplay:10.37,2013-08-09 00:48:00,
2013-08-08 20:51:00,74.8,69.0,30.21,SSE,158,2.3,2.3,82,0.00,CLR,,0.00,WeatherDisplay:10.37,2013-08-09 00:51:00,
2013-08-08 20:53:00,74.8,69.0,30.22,SSE,158,2.3,2.3,82,0.00,CLR,,0.00,WeatherDisplay:10.37,2013-08-09 00:53:00,
2013-08-08 20:54:00,74.8,69.0,30.21,SSE,158,2.3,2.6,82,0.00,CLR,,0.00,WeatherDisplay:10.37,2013-08-09 00:54:00,
2013-08-08 20:57:00,74.7,68.8,30.22,SSE,158,0.0,0.5,82,0.00,CLR,,0.00,WeatherDisplay:10.37,2013-08-09 00:57:00,
2013-08-08 20:58:00,74.7,68.8,30.22,SSE,158,0.0,0.7,82,0.00,CLR,,0.00,WeatherDisplay:10.37,2013-08-09 00:58:00,
2013-08-08 21:00:00,74.7,68.8,30.22,SSE,158,2.3,0.0,82,0.00,CLR,,0.00,WeatherDisplay:10.37,2013-08-09 01:00:00,
2013-08-08 21:03:00,74.7,68.8,30.22,East,90,0.0,0.5,82,0.00,CLR,,0.00,WeatherDisplay:10.37,2013-08-09 01:03:00,
2013-08-08 21:04:00,74.7,68.8,30.22,SSE,158,0.0,0.5,82,0.00,CLR,,0.00,WeatherDisplay:10.37,2013-08-09 01:04:00,
2013-08-08 21:05:00,74.7,68.8,30.22,SSE,158,1.2,1.2,82,0.00,CLR,,0.00,WeatherDisplay:10.37,2013-08-09 01:05:00,
2013-08-08 21:08:00,74.7,68.8,30.22,SSE,158,2.3,2.4,82,0.00,CLR,,0.00,WeatherDisplay:10.37,2013-08-09 01:08:00,
2013-08-08 21:09:00,74.5,68.6,30.22,SSE,158,2.3,2.3,82,0.00,CLR,,0.00,WeatherDisplay:10.37,2013-08-09 01:09:00,
2013-08-08 21:10:00,74.5,68.6,30.22,SSE,158,2.3,2.3,82,0.00,CLR,,0.00,WeatherDisplay:10.37,2013-08-09 01:10:00,
2013-08-08 21:13:00,74.5,68.6,30.22,SW,225,2.3,0.0,82,0.00,CLR,,0.00,WeatherDisplay:10.37,2013-08-09 01:13:00,
2013-08-08 21:14:00,74.5,68.6,30.22,SW,225,0.0,0.0,82,0.00,CLR,,0.00,WeatherDisplay:10.37,2013-08-09 01:14:00,
2013-08-08 21:15:00,74.5,68.6,30.22,SSE,150,0.0,2.0,82,0.00,CLR,CLR,0.00,WeatherDisplay:10.37,2013-08-09 01:15:00,
2013-08-08 21:16:00,74.5,68.6,30.22,SW,225,0.0,0.0,82,0.00,CLR,,0.00,WeatherDisplay:10.37,2013-08-09 01:16:00,
2013-08-08 21:19:00,74.3,68.4,30.22,South,180,1.2,1.2,82,0.00,CLR,,0.00,WeatherDisplay:10.37,2013-08-09 01:19:00,
2013-08-08 21:20:00,74.3,68.4,30.22,SSE,158,1.2,1.4,82,0.00,CLR,,0.00,WeatherDisplay:10.37,2013-08-09 01:20:00,
2013-08-08 21:21:00,74.3,68.8,30.22,South,180,1.2,1.2,83,0.00,CLR,,0.00,WeatherDisplay:10.37,2013-08-09 01:21:00,
2013-08-08 21:25:00,74.3,68.8,30.22,South,173,0.0,1.0,83,0.00,CLR,CLR,0.00,WeatherDisplay:10.37,2013-08-09 01:25:00,
2013-08-08 21:26:00,74.3,68.8,30.21,SE,135,0.0,2.0,83,0.00,CLR,,0.00,WeatherDisplay:10.37,2013-08-09 01:26:00,
2013-08-08 21:27:00,74.3,68.8,30.22,South,180,2.3,2.3,83,0.00,CLR,,0.00,WeatherDisplay:10.37,2013-08-09 01:27:00,
2013-08-08 21:29:00,74.3,68.8,30.22,South,180,1.2,1.2,83,0.00,CLR,,0.00,WeatherDisplay:10.37,2013-08-09 01:29:00,
2013-08-08 21:30:00,74.3,68.8,30.22,South,180,0.0,0.5,83,0.00,CLR,,0.00,WeatherDisplay:10.37,2013-08-09 01:30:00,
2013-08-08 21:31:00,74.1,68.6,30.22,SSE,158,0.0,0.2,83,0.00,CLR,,0.00,WeatherDisplay:10.37,2013-08-09 01:31:00,
2013-08-08 21:32:00,74.1,68.6,30.22,SSE,158,0.0,0.2,83,0.00,CLR,,0.00,WeatherDisplay:10.37,2013-08-09 01:32:00,
2013-08-08 21:36:00,74.1,68.6,30.22,SSW,202,1.2,1.2,83,0.00,CLR,,0.00,WeatherDisplay:10.37,2013-08-09 01:36:00,
2013-08-08 21:37:00,74.1,68.6,30.22,SSW,202,0.0,0.0,83,0.00,CLR,,0.00,WeatherDisplay:10.37,2013-08-09 01:37:00,
2013-08-08 21:39:00,74.1,68.6,30.23,SSW,202,0.5,0.5,83,0.00,CLR,,0.00,WeatherDisplay:10.37,2013-08-09 01:39:00,
2013-08-08 21:41:00,74.1,68.6,30.22,SE,135,0.0,0.9,83,0.00,CLR,,0.00,WeatherDisplay:10.37,2013-08-09 01:41:00,
2013-08-08 21:42:00,74.1,68.6,30.22,SE,135,1.2,1.2,83,0.00,CLR,,0.00,WeatherDisplay:10.37,2013-08-09 01:42:00,
2013-08-08 21:44:00,73.9,68.4,30.23,SSE,158,1.2,1.8,83,0.00,CLR,,0.00,WeatherDisplay:10.37,2013-08-09 01:44:00,
2013-08-08 21:46:00,73.9,68.4,30.23,SSE,158,2.3,2.4,83,0.00,CLR,,0.00,WeatherDisplay:10.37,2013-08-09 01:46:00,
2013-08-08 21:47:00,73.9,68.4,30.23,SE,135,2.3,2.3,83,0.00,CLR,,0.00,WeatherDisplay:10.37,2013-08-09 01:47:00,
2013-08-08 21:49:00,73.9,68.4,30.23,SSE,158,2.3,2.3,83,0.00,CLR,,0.00,WeatherDisplay:10.37,2013-08-09 01:49:00,
2013-08-08 21:50:00,73.9,68.4,30.23,SSE,158,2.3,2.3,83,0.00,CLR,,0.00,WeatherDisplay:10.37,2013-08-09 01:50:00,
2013-08-08 21:52:00,73.9,68.4,30.24,South,180,2.3,2.3,83,0.00,CLR,,0.00,WeatherDisplay:10.37,2013-08-09 01:52:00,
2013-08-08 21:53:00,73.9,68.4,30.24,South,180,2.3,2.3,83,0.00,CLR,,0.00,WeatherDisplay:10.37,2013-08-09 01:53:00,
2013-08-08 21:55:00,73.8,68.3,30.23,SSE,158,2.3,2.3,83,0.00,CLR,,0.00,WeatherDisplay:10.37,2013-08-09 01:55:00,
2013-08-08 21:59:00,73.6,68.1,30.23,SSE,158,4.6,4.6,83,0.00,CLR,,0.00,WeatherDisplay:10.37,2013-08-09 01:59:00,
2013-08-08 22:01:00,73.6,68.1,30.23,SE,135,2.3,2.3,83,0.00,CLR,,0.00,WeatherDisplay:10.37,2013-08-09 02:01:00,
2013-08-08 22:04:00,73.6,68.1,30.23,SE,135,2.3,2.6,83,0.00,CLR,,0.00,WeatherDisplay:10.37,2013-08-09 02:04:00,
2013-08-08 22:06:00,73.6,68.1,30.23,South,180,2.3,2.4,83,0.00,CLR,,0.00,WeatherDisplay:10.37,2013-08-09 02:06:00,
2013-08-08 22:09:00,73.6,68.4,30.23,SE,135,3.5,3.5,84,0.00,CLR,,0.00,WeatherDisplay:10.37,2013-08-09 02:09:00,
2013-08-08 22:11:00,73.4,68.3,30.23,South,180,1.2,1.8,84,0.00,CLR,,0.00,WeatherDisplay:10.37,2013-08-09 02:11:00,
2013-08-08 22:12:00,73.4,68.3,30.23,WSW,248,2.3,2.3,84,0.00,CLR,,0.00,WeatherDisplay:10.37,2013-08-09 02:12:00,
2013-08-08 22:14:00,73.4,68.3,30.23,South,180,2.3,2.3,84,0.00,CLR,,0.00,WeatherDisplay:10.37,2013-08-09 02:14:00,
2013-08-08 22:16:00,73.4,68.3,30.22,SE,135,0.0,0.5,84,0.00,CLR,,0.00,WeatherDisplay:10.37,2013-08-09 02:16:00,
2013-08-08 22:17:00,73.4,68.3,30.22,SE,135,0.0,0.7,84,0.00,CLR,,0.00,WeatherDisplay:10.37,2013-08-09 02:17:00,
2013-08-08 22:19:00,73.4,68.3,30.22,SSE,158,2.3,0.0,84,0.00,CLR,,0.00,WeatherDisplay:10.37,2013-08-09 02:19:00,
2013-08-08 22:21:00,73.2,68.1,30.22,SE,135,1.2,1.2,84,0.00,CLR,,0.00,WeatherDisplay:10.37,2013-08-09 02:21:00,
2013-08-08 22:22:00,73.2,68.1,30.22,SE,135,1.2,1.2,84,0.00,CLR,,0.00,WeatherDisplay:10.37,2013-08-09 02:22:00,
2013-08-08 22:25:00,73.2,68.1,30.22,SSE,158,2.3,2.3,84,0.00,CLR,,0.00,WeatherDisplay:10.37,2013-08-09 02:25:00,
2013-08-08 22:26:00,73.2,68.1,30.22,SSE,158,1.2,1.2,84,0.00,CLR,,0.00,WeatherDisplay:10.37,2013-08-09 02:26:00,
2013-08-08 22:27:00,73.2,68.1,30.22,SSE,158,1.2,1.2,84,0.00,CLR,,0.00,WeatherDisplay:10.37,2013-08-09 02:27:00,
2013-08-08 22:29:00,73.2,68.1,30.22,SE,135,1.2,1.2,84,0.00,CLR,,0.00,WeatherDisplay:10.37,2013-08-09 02:29:00,
2013-08-08 22:31:00,73.2,68.1,30.22,West,270,2.3,2.3,84,0.00,CLR,,0.00,WeatherDisplay:10.37,2013-08-09 02:31:00,
2013-08-08 22:32:00,73.2,68.1,30.22,West,270,2.3,2.3,84,0.00,CLR,,0.00,WeatherDisplay:10.37,2013-08-09 02:32:00,
2013-08-08 22:34:00,73.0,67.9,30.22,SSE,158,2.3,2.3,84,0.00,CLR,,0.00,WeatherDisplay:10.37,2013-08-09 02:34:00,
2013-08-08 22:37:00,73.0,67.9,30.22,WSW,248,1.2,1.2,84,0.00,CLR,,0.00,WeatherDisplay:10.37,2013-08-09 02:37:00,
2013-08-08 22:39:00,73.0,67.9,30.21,SE,135,1.2,1.8,84,0.00,CLR,,0.00,WeatherDisplay:10.37,2013-08-09 02:39:00,
2013-08-08 22:42:00,73.0,67.9,30.20,ENE,68,2.3,2.3,84,0.00,CLR,,0.00,WeatherDisplay:10.37,2013-08-09 02:42:00,
2013-08-08 22:43:00,72.9,67.7,30.20,SSE,158,1.2,1.2,84,0.00,CLR,,0.00,WeatherDisplay:10.37,2013-08-09 02:43:00,
2013-08-08 22:46:00,72.9,67.7,30.19,SE,135,1.2,1.8,84,0.00,CLR,,0.00,WeatherDisplay:10.37,2013-08-09 02:46:00,
2013-08-08 22:47:00,72.9,67.7,30.19,SSE,158,2.3,2.3,84,0.00,CLR,,0.00,WeatherDisplay:10.37,2013-08-09 02:47:00,
2013-08-08 22:48:00,72.9,68.1,30.19,SSW,202,2.3,2.3,85,0.00,CLR,,0.00,WeatherDisplay:10.37,2013-08-09 02:48:00,
2013-08-08 22:52:00,72.9,68.1,30.18,South,180,1.2,1.2,85,0.00,CLR,,0.00,WeatherDisplay:10.37,2013-08-09 02:52:00,
2013-08-08 22:54:00,72.9,68.1,30.18,SSW,202,1.2,1.2,85,0.00,CLR,,0.00,WeatherDisplay:10.37,2013-08-09 02:54:00,
2013-08-08 22:57:00,72.9,68.1,30.18,SE,135,1.2,1.2,85,0.00,CLR,,0.00,WeatherDisplay:10.37,2013-08-09 02:57:00,
2013-08-08 22:58:00,72.7,67.9,30.18,SSE,158,2.3,2.3,85,0.00,CLR,,0.00,WeatherDisplay:10.37,2013-08-09 02:58:00,
2013-08-08 23:01:00,72.7,67.9,30.18,SSE,158,2.3,0.0,85,0.00,CLR,,0.00,WeatherDisplay:10.37,2013-08-09 03:01:00,
2013-08-08 23:03:00,72.7,67.9,30.18,SE,135,0.0,1.8,85,0.00,CLR,,0.00,WeatherDisplay:10.37,2013-08-09 03:03:00,
2013-08-08 23:06:00,72.7,67.9,30.17,South,180,2.3,2.3,85,0.00,CLR,,0.00,WeatherDisplay:10.37,2013-08-09 03:06:00,
2013-08-08 23:08:00,72.7,67.9,30.17,SSE,158,4.6,4.6,85,0.00,CLR,,0.00,WeatherDisplay:10.37,2013-08-09 03:08:00,
2013-08-08 23:10:00,72.5,67.7,30.17,East,90,1.2,1.2,85,0.00,CLR,,0.00,WeatherDisplay:10.37,2013-08-09 03:10:00,
2013-08-08 23:11:00,72.5,67.7,30.17,ESE,112,2.3,2.9,85,0.00,CLR,,0.00,WeatherDisplay:10.37,2013-08-09 03:11:00,
2013-08-08 23:13:00,72.5,67.7,30.17,SSE,158,2.3,2.3,85,0.00,CLR,,0.00,WeatherDisplay:10.37,2013-08-09 03:13:00,
2013-08-08 23:14:00,72.5,67.7,30.17,SSE,158,2.3,2.3,85,0.00,CLR,,0.00,WeatherDisplay:10.37,2013-08-09 03:14:00,
2013-08-08 23:15:00,72.5,67.7,30.17,South,180,2.3,2.3,85,0.00,CLR,,0.00,WeatherDisplay:10.37,2013-08-09 03:15:00,
2013-08-08 23:17:00,72.5,67.7,30.17,SE,135,2.3,2.3,85,0.00,CLR,,0.00,WeatherDisplay:10.37,2013-08-09 03:17:00,
2013-08-08 23:18:00,72.5,67.7,30.17,WSW,248,2.3,3.3,85,0.00,CLR,,0.00,WeatherDisplay:10.37,2013-08-09 03:18:00,
2013-08-08 23:19:00,72.5,67.7,30.17,South,180,3.5,3.5,85,0.00,CLR,,0.00,WeatherDisplay:10.37,2013-08-09 03:19:00,
2013-08-08 23:23:00,72.5,67.7,30.17,SSE,158,2.3,2.3,85,0.00,CLR,,0.00,WeatherDisplay:10.37,2013-08-09 03:23:00,
2013-08-08 23:27:00,72.5,67.7,30.17,South,180,1.2,1.2,85,0.00,CLR,,0.00,WeatherDisplay:10.37,2013-08-09 03:27:00,
2013-08-08 23:28:00,72.5,67.7,30.17,SE,135,4.6,4.6,85,0.00,CLR,,0.00,WeatherDisplay:10.37,2013-08-09 03:28:00,
2013-08-08 23:30:00,72.5,67.7,30.17,SSE,158,4.6,4.6,85,0.00,CLR,,0.00,WeatherDisplay:10.37,2013-08-09 03:30:00,
2013-08-08 23:33:00,72.5,67.7,30.17,SSE,158,4.6,4.6,85,0.00,CLR,,0.00,WeatherDisplay:10.37,2013-08-09 03:33:00,
2013-08-08 23:34:00,72.5,67.7,30.16,SSE,158,4.6,4.6,85,0.00,CLR,,0.00,WeatherDisplay:10.37,2013-08-09 03:34:00,
2013-08-08 23:36:00,72.5,67.7,30.16,SSE,158,2.3,2.4,85,0.00,CLR,,0.00,WeatherDisplay:10.37,2013-08-09 03:36:00,
2013-08-08 23:38:00,72.5,67.7,30.15,SSE,158,2.3,2.3,85,0.00,CLR,,0.00,WeatherDisplay:10.37,2013-08-09 03:38:00,
2013-08-08 23:39:00,72.3,67.6,30.15,South,180,1.2,2.4,85,0.00,CLR,,0.00,WeatherDisplay:10.37,2013-08-09 03:39:00,
2013-08-08 23:40:00,72.3,67.6,30.15,South,180,1.2,2.4,85,0.00,CLR,,0.00,WeatherDisplay:10.37,2013-08-09 03:40:00,
2013-08-08 23:44:00,72.3,67.9,30.15,SE,135,3.5,3.5,86,0.00,CLR,,0.00,WeatherDisplay:10.37,2013-08-09 03:44:00,
2013-08-08 23:45:00,72.3,67.9,30.15,ENE,68,3.5,3.5,86,0.00,CLR,,0.00,WeatherDisplay:10.37,2013-08-09 03:45:00,
2013-08-08 23:49:00,72.3,67.9,30.16,South,180,3.5,3.5,86,0.00,CLR,,0.00,WeatherDisplay:10.37,2013-08-09 03:49:00,
2013-08-08 23:50:00,72.3,67.9,30.15,SE,135,4.6,4.6,86,0.00,CLR,,0.00,WeatherDisplay:10.37,2013-08-09 03:50:00,
2013-08-08 23:54:00,72.3,67.9,30.15,SE,135,1.2,1.2,86,0.00,CLR,,0.00,WeatherDisplay:10.37,2013-08-09 03:54:00,
2013-08-08 23:55:00,72.3,67.9,30.15,SE,135,1.2,1.2,86,0.00,CLR,,0.00,WeatherDisplay:10.37,2013-08-09 03:55:00,
2013-08-08 23:56:00,72.1,67.7,30.15,SSW,202,1.2,1.2,86,0.00,CLR,,0.00,WeatherDisplay:10.37,2013-08-09 03:56:00,